Latitude: N 50° 09' 49" Longitude: W 05° 11' 53" Elevation: 168m ASL

There are 5 visitors online

Adverts

<- Previous Day | Today | Next Day ->

All Data for 13 June 2018

Time
A - D
Temp
A - D
Dew Point
A - D
Humidity
A - D
Pressure
A - D
Wind
A - D
Wind Dir Gust
A - D
Rain Rate
A - D
Rain Total
00:01 13.7 11.8 88 1020.2 3.8 NW 3.8 0.0 0.0
00:02 13.6 11.7 88 1020.2 1.6 NW 3.8 0.0 0.0
00:03 13.7 11.8 88 1020.1 3.8 W 3.8 0.0 0.0
00:04 13.6 11.7 88 1020.2 1.6 N 3.8 0.0 0.0
00:05 13.6 11.7 88 1020.1 3.1 NE 3.8 0.0 0.0
00:06 13.6 11.7 88 1020.1 3.1 NE 3.8 0.0 0.0
00:07 13.6 11.7 88 1020.1 2.2 N 3.8 0.0 0.0
00:08 13.6 11.7 88 1020.0 2.2 N 3.8 0.0 0.0
00:09 13.6 11.7 88 1020.0 2.2 NW 3.8 0.0 0.0
00:10 13.6 11.7 88 1020.1 2.2 NW 3.8 0.0 0.0
00:11 13.6 11.7 88 1020.1 3.8 NW 3.8 0.0 0.0
00:12 13.6 11.7 88 1020.2 3.8 NW 3.8 0.0 0.0
00:13 13.6 11.7 88 1020.2 3.8 N 3.8 0.0 0.0
00:14 13.6 11.7 88 1020.1 3.1 N 3.8 0.0 0.0
00:15 13.6 11.7 88 1020.2 3.1 NW 3.8 0.0 0.0
00:16 13.6 11.7 88 1020.2 3.1 NW 3.8 0.0 0.0
00:17 13.6 11.7 88 1020.3 5.4 W 5.4 0.0 0.0
00:18 13.6 11.7 88 1020.1 4.5 NW 5.4 0.0 0.0
00:19 13.6 11.7 88 1020.1 3.8 N 5.4 0.0 0.0
00:20 13.6 11.7 88 1020.1 4.5 N 5.4 0.0 0.0
00:22 13.6 11.7 88 1020.1 3.1 NW 5.4 0.0 0.0
00:23 13.6 11.8 89 1020.1 4.5 N 5.4 0.0 0.0
00:24 13.6 11.8 89 1020.2 4.5 NNW 5.4 0.0 0.0
00:25 13.6 11.8 89 1020.0 5.4 NW 5.4 0.0 0.0
00:26 13.6 11.8 89 1020.0 4.5 N 5.4 0.0 0.0
00:27 13.5 11.7 89 1020.0 3.8 NW 5.4 0.0 0.0
00:28 13.6 11.8 89 1020.0 5.4 NW 5.4 0.0 0.0
00:29 13.6 11.8 89 1020.2 4.5 WNW 5.4 0.0 0.0
00:30 13.6 11.8 89 1020.0 3.8 NW 5.4 0.0 0.0
00:31 13.5 11.7 89 1020.1 3.1 SW 5.4 0.0 0.0
00:32 13.5 11.7 89 1020.0 2.2 NW 5.4 0.0 0.0
00:33 13.6 11.8 89 1020.1 4.5 N 5.4 0.0 0.0
00:34 13.5 11.7 89 1020.1 4.5 N 5.4 0.0 0.0
00:35 13.5 11.7 89 1020.1 3.1 NW 5.4 0.0 0.0
00:36 13.5 11.7 89 1020.1 5.4 N 5.4 0.0 0.0
00:37 13.5 11.7 89 1020.1 3.8 NW 5.4 0.0 0.0
00:38 13.5 11.7 89 1020.1 2.2 N 5.4 0.0 0.0
00:39 13.5 11.7 89 1020.0 3.8 WNW 5.4 0.0 0.0
00:40 13.5 11.7 89 1019.9 2.2 N 5.4 0.0 0.0
00:41 13.5 11.7 89 1020.0 2.2 W 5.4 0.0 0.0
00:43 13.5 11.7 89 1020.0 4.5 N 5.4 0.0 0.0
00:44 13.5 11.7 89 1020.1 3.8 N 5.4 0.0 0.0
00:45 13.5 11.7 89 1020.1 1.6 N 5.4 0.0 0.0
00:46 13.4 11.6 89 1020.0 4.5 NW 4.5 0.0 0.0
00:47 13.4 11.8 90 1020.0 3.8 SW 4.5 0.0 0.0
00:48 13.4 11.8 90 1020.0 3.8 W 4.5 0.0 0.0
00:49 13.4 11.8 90 1020.0 2.2 NW 4.5 0.0 0.0
00:50 13.4 11.8 90 1020.1 3.1 NW 4.5 0.0 0.0
00:51 13.4 11.8 90 1020.1 3.1 NW 4.5 0.0 0.0
00:52 13.4 11.8 90 1020.2 1.6 N 4.5 0.0 0.0
00:53 13.4 11.8 90 1020.2 1.6 NW 4.5 0.0 0.0
00:54 13.4 11.8 90 1020.1 2.2 N 4.5 0.0 0.0
00:55 13.3 11.7 90 1020.2 3.1 NW 4.5 0.0 0.0
00:56 13.3 11.7 90 1020.0 2.2 NW 4.5 0.0 0.0
00:57 13.3 11.7 90 1020.1 2.2 NW 3.8 0.0 0.0
00:58 13.3 11.7 90 1020.3 2.2 NW 3.1 0.0 0.0
00:59 13.3 11.7 90 1020.3 2.2 NW 3.1 0.0 0.0
01:00 13.3 11.7 90 1020.3 2.2 N 3.1 0.0 0.0
01:01 13.3 11.7 90 1020.3 3.1 N 3.1 0.0 0.0
01:03 13.3 11.7 90 1020.3 3.1 NW 3.8 0.0 0.0
01:04 13.3 11.7 90 1020.2 3.1 NW 3.8 0.0 0.0
01:05 13.3 11.7 90 1020.3 2.2 NW 3.8 0.0 0.0
01:06 13.3 11.7 90 1020.3 3.8 NW 3.8 0.0 0.0
01:08 13.3 11.7 90 1020.3 3.1 NW 4.5 0.0 0.0
01:09 13.3 11.7 90 1020.4 3.8 N 4.5 0.0 0.0
01:10 13.4 11.8 90 1020.3 2.2 NW 4.5 0.0 0.0
01:11 13.4 11.8 90 1020.4 3.1 NW 4.5 0.0 0.0
01:12 13.4 11.8 90 1020.3 5.4 NW 5.4 0.0 0.0
01:13 13.4 11.8 90 1020.3 3.8 NW 5.4 0.0 0.0
01:14 13.4 11.8 90 1020.2 3.8 W 5.4 0.0 0.0
01:15 13.4 12.0 91 1020.3 3.8 N 5.4 0.0 0.0
01:16 13.4 12.0 91 1020.4 3.1 NW 5.4 0.0 0.0
01:17 13.5 12.1 91 1020.5 2.2 NW 5.4 0.0 0.0
01:18 13.4 12.0 91 1020.4 3.1 N 5.4 0.0 0.0
01:19 13.5 12.1 91 1020.4 4.5 WNW 5.4 0.0 0.0
01:20 13.5 12.1 91 1020.3 3.1 N 5.4 0.0 0.0
01:21 13.5 12.1 91 1020.2 1.6 WNW 5.4 0.0 0.0
01:22 13.5 12.1 91 1020.3 2.2 NW 5.4 0.0 0.0
01:23 13.5 12.1 91 1020.2 2.2 NE 5.4 0.0 0.0
01:24 13.5 12.1 91 1020.2 4.5 NW 5.4 0.0 0.0
01:25 13.5 12.1 91 1020.3 4.5 NW 5.4 0.0 0.0
01:27 13.6 12.2 91 1020.3 4.5 SW 5.4 0.0 0.0
01:28 13.6 12.2 91 1020.2 3.1 N 5.4 0.0 0.0
01:29 13.6 12.2 91 1020.3 3.1 W 4.5 0.0 0.0
01:30 13.6 12.2 91 1020.3 3.1 W 4.5 0.0 0.0
01:31 13.6 12.2 91 1020.3 2.2 NW 4.5 0.0 0.0
01:32 13.6 12.3 92 1020.4 4.5 N 4.5 0.0 0.0
01:33 13.7 12.3 91 1020.3 3.1 W 4.5 0.0 0.0
01:34 13.7 12.4 92 1020.3 2.2 N 4.5 0.0 0.0
01:35 13.7 12.4 92 1020.3 3.1 N 4.5 0.0 0.0
01:36 13.7 12.4 92 1020.4 0.7 NW 4.5 0.0 0.0
01:37 13.7 12.4 92 1020.3 2.2 NW 4.5 0.0 0.0
01:38 13.7 12.4 92 1020.4 3.1 N 4.5 0.0 0.0
01:39 13.7 12.4 92 1020.3 3.1 N 4.5 0.0 0.0
01:40 13.7 12.4 92 1020.3 3.1 NW 4.5 0.0 0.0
01:41 13.7 12.4 92 1020.4 6.0 W 6.0 0.0 0.0
01:42 13.8 12.5 92 1020.3 3.8 N 6.0 0.0 0.0
01:43 13.8 12.5 92 1020.3 3.8 N 6.0 0.0 0.0
01:44 13.8 12.5 92 1020.4 5.4 NNW 6.0 0.0 0.0
01:46 13.8 12.5 92 1020.2 5.4 NW 6.0 0.0 0.0
01:47 13.8 12.5 92 1020.3 4.5 NW 6.0 0.0 0.0
01:48 13.8 12.5 92 1020.3 3.8 SW 6.0 0.0 0.0
01:49 13.8 12.5 92 1020.3 1.6 NW 6.0 0.0 0.0
01:50 13.8 12.5 92 1020.3 1.6 NW 6.0 0.0 0.0
01:51 13.8 12.5 92 1020.3 5.4 W 6.0 0.0 0.0
01:52 13.8 12.5 92 1020.3 3.8 NW 5.4 0.0 0.0
01:53 13.8 12.5 92 1020.3 3.8 SW 5.4 0.0 0.0
01:54 13.8 12.5 92 1020.3 3.8 NW 5.4 0.0 0.0
01:55 13.8 12.5 92 1020.3 3.1 N 5.4 0.0 0.0
01:56 13.9 12.6 92 1020.3 5.4 NW 5.4 0.0 0.0
01:57 13.8 12.5 92 1020.2 3.8 W 5.4 0.0 0.0
01:58 13.9 12.6 92 1020.3 4.5 W 5.4 0.0 0.0
01:59 13.8 12.7 93 1020.3 6.0 N 6.0 0.0 0.0
02:00 13.8 12.5 92 1020.2 5.4 WNW 6.0 0.0 0.0
02:01 13.9 12.6 92 1020.3 7.6 W 7.6 0.0 0.0
02:02 13.9 12.8 93 1020.2 6.0 NW 7.6 0.0 0.0
02:03 13.9 12.8 93 1020.3 4.5 SW 7.6 0.0 0.0
02:05 13.9 12.8 93 1020.3 3.8 N 7.6 0.0 0.0
02:06 13.9 12.8 93 1020.2 3.8 NW 7.6 0.0 0.0
02:07 13.9 12.8 93 1020.3 6.0 NW 7.6 0.0 0.0
02:08 13.9 12.8 93 1020.3 4.5 NW 7.6 0.0 0.0
02:09 13.9 12.8 93 1020.3 4.5 NW 7.6 0.0 0.0
02:10 13.9 12.8 93 1020.3 3.1 NW 7.6 0.0 0.0
02:11 13.9 12.8 93 1020.3 6.0 N 7.6 0.0 0.0
02:12 13.9 12.8 93 1020.2 4.5 N 7.6 0.0 0.0
02:13 13.9 12.8 93 1020.3 4.5 NW 7.6 0.0 0.0
02:14 13.9 12.8 93 1020.2 4.5 NE 7.6 0.0 0.0
02:15 13.9 12.8 93 1020.3 7.6 NW 7.6 0.0 0.0
02:16 13.9 12.8 93 1020.1 3.8 N 7.6 0.0 0.0
02:17 13.9 12.8 93 1020.2 2.2 N 7.6 0.0 0.0
02:18 13.9 12.8 93 1020.3 5.4 WSW 7.6 0.0 0.0
02:19 13.9 12.8 93 1020.3 4.5 W 7.6 0.0 0.0
02:20 13.9 12.8 93 1020.3 4.5 NW 7.6 0.0 0.0
02:21 13.9 12.8 93 1020.1 6.9 NW 7.6 0.0 0.0
02:22 13.9 12.8 93 1020.4 6.9 NW 7.6 0.0 0.0
02:24 13.9 12.8 93 1020.4 5.4 NW 7.6 0.0 0.0
02:25 13.9 12.8 93 1020.2 5.4 W 7.6 0.0 0.0
02:26 13.9 12.8 93 1020.3 5.4 NW 7.6 0.0 0.0
02:27 13.9 13.0 94 1020.4 6.9 W 7.6 0.0 0.0
02:28 13.9 13.0 94 1020.3 9.2 NW 9.2 0.0 0.0
02:29 13.9 12.8 93 1020.2 6.0 NW 9.2 0.0 0.0
02:30 13.9 13.0 94 1020.3 5.4 NW 9.2 0.0 0.0
02:31 13.9 13.0 94 1020.1 3.8 W 9.2 0.0 0.0
02:38 13.9 13.0 94 1020.0 4.5 W 8.3 0.0 0.0
02:39 14.0 13.1 94 1020.0 5.4 NW 8.3 0.0 0.0
02:40 14.0 13.1 94 1020.0 3.8 SW 8.3 0.0 0.0
02:41 14.0 13.1 94 1020.0 5.4 NW 8.3 0.0 0.0
02:42 14.0 13.1 94 1020.1 3.1 NW 8.3 0.0 0.0
02:43 14.0 13.1 94 1020.2 5.4 W 8.3 0.0 0.0
02:44 13.9 13.0 94 1020.0 3.8 NW 8.3 0.0 0.0
02:45 13.9 13.0 94 1020.0 6.0 NW 8.3 0.0 0.0
02:46 14.0 13.1 94 1020.1 6.9 NW 8.3 0.0 0.0
02:47 13.9 13.0 94 1019.8 4.5 NW 8.3 0.0 0.0
02:48 14.0 13.1 94 1020.0 5.4 NW 8.3 0.0 0.0
02:49 13.9 13.0 94 1020.1 6.0 NW 8.3 0.0 0.0
02:50 14.0 13.1 94 1019.9 3.8 NW 8.3 0.0 0.0
02:51 14.0 13.1 94 1020.0 2.2 N 8.3 0.0 0.0
02:52 14.0 13.1 94 1020.0 2.2 N 6.9 0.0 0.0
02:53 13.9 13.0 94 1020.0 3.8 WNW 6.9 0.0 0.0
02:54 13.9 13.0 94 1020.1 5.4 NW 6.9 0.0 0.0
02:55 13.9 13.0 94 1020.0 3.8 NW 6.9 0.0 0.0
02:57 13.9 13.0 94 1020.2 3.8 N 6.0 0.0 0.0
02:58 13.9 13.0 94 1020.1 2.2 SW 6.0 0.0 0.0
02:59 14.0 13.1 94 1020.0 5.4 NNW 5.4 0.0 0.0
03:00 14.0 13.1 94 1020.2 4.5 W 5.4 0.0 0.0
03:01 14.0 13.1 94 1020.0 4.5 W 5.4 0.0 0.0
03:02 14.0 13.1 94 1020.0 4.5 W 5.4 0.0 0.0
03:04 14.0 13.1 94 1020.0 4.5 W 5.4 0.0 0.0
03:05 13.9 13.0 94 1019.9 2.2 NW 5.4 0.0 0.0
03:06 13.9 13.0 94 1020.0 2.2 NW 5.4 0.0 0.0
03:07 13.9 13.0 94 1020.0 1.6 NW 5.4 0.0 0.0
03:08 13.9 13.0 94 1020.1 1.6 N 5.4 0.0 0.0
03:09 13.9 13.0 94 1020.0 5.4 N 5.4 0.0 0.0
03:10 13.9 13.0 94 1019.9 4.5 NW 5.4 0.0 0.0
03:11 13.9 13.0 94 1019.9 4.5 NW 5.4 0.0 0.0
03:12 13.9 13.0 94 1020.2 3.1 WNW 5.4 0.0 0.0
03:13 13.9 13.0 94 1019.9 4.5 NW 5.4 0.0 0.0
03:14 13.9 13.0 94 1020.2 5.4 NW 5.4 0.0 0.0
03:15 13.9 13.0 94 1020.1 4.5 N 5.4 0.0 0.0
03:16 13.8 12.9 94 1020.1 3.1 W 5.4 0.0 0.0
03:17 13.9 13.0 94 1020.1 2.2 NE 5.4 0.0 0.0
03:18 13.8 12.9 94 1020.1 3.1 SW 5.4 0.0 0.0
03:19 13.8 12.9 94 1020.0 4.5 SW 5.4 0.0 0.0
03:20 13.8 12.9 94 1020.1 5.4 NW 5.4 0.0 0.0
03:21 13.8 12.9 94 1020.1 6.0 N 6.0 0.0 0.0
03:23 13.8 12.9 94 1020.1 6.9 NW 6.9 0.0 0.0
03:24 13.8 12.9 94 1019.9 9.2 W 9.2 0.0 0.0
03:25 13.8 12.9 94 1020.1 5.4 N 9.2 0.0 0.0
03:26 13.8 12.9 94 1020.1 3.8 WNW 9.2 0.0 0.0
03:27 13.8 12.9 94 1020.1 7.6 W 9.2 0.0 0.0
03:28 13.8 12.9 94 1020.0 6.0 NW 9.2 0.0 0.0
03:29 13.8 12.9 94 1020.1 3.1 W 9.2 0.0 0.0
03:30 13.8 12.9 94 1020.1 3.1 W 9.2 0.0 0.0
03:31 13.8 12.9 94 1020.2 5.4 W 9.2 0.0 0.0
03:32 13.8 12.9 94 1020.0 6.0 W 9.2 0.0 0.0
03:33 13.8 12.9 94 1020.1 7.6 NW 9.2 0.0 0.0
03:34 13.8 12.9 94 1020.1 6.0 NW 9.2 0.0 0.0
03:35 13.8 13.0 95 1020.2 3.8 WNW 7.6 0.0 0.0
03:36 13.8 12.9 94 1020.1 6.9 SW 7.6 0.0 0.0
03:37 13.8 13.0 95 1020.1 7.6 NW 7.6 0.0 0.0
03:38 13.9 13.1 95 1020.3 6.9 NW 7.6 0.0 0.0
03:39 13.8 13.0 95 1020.1 7.6 NW 7.6 0.0 0.0
03:40 13.9 13.1 95 1020.2 9.2 W 9.2 0.0 0.0
03:42 13.9 13.1 95 1020.1 6.9 NW 9.2 0.0 0.0
03:43 13.8 13.0 95 1020.1 9.2 NW 9.2 0.0 0.0
03:44 13.9 13.1 95 1020.0 6.9 W 9.2 0.0 0.0
03:45 13.7 12.9 95 1020.0 7.6 W 9.2 0.0 0.0
03:46 13.9 13.1 95 1020.0 6.0 W 9.2 0.0 0.0
03:47 13.9 13.1 95 1020.0 6.0 N 9.2 0.0 0.0
03:48 13.8 13.0 95 1020.1 3.8 N 9.2 0.0 0.0
03:49 13.9 13.1 95 1020.0 6.0 WNW 9.2 0.0 0.0
03:50 13.9 13.1 95 1020.1 4.5 W 9.2 0.0 0.0
03:51 13.8 13.0 95 1020.1 3.8 NW 9.2 0.0 0.0
03:52 13.8 13.0 95 1020.0 6.9 W 9.2 0.0 0.0
03:53 13.8 13.0 95 1019.9 6.9 WSW 9.2 0.0 0.0
03:54 13.8 13.0 95 1019.9 6.0 W 7.6 0.0 0.0
03:55 13.8 13.0 95 1020.1 5.4 NW 7.6 0.0 0.0
03:56 13.8 13.0 95 1020.0 6.9 NW 6.9 0.0 0.0
03:57 13.8 13.0 95 1020.0 6.0 W 6.9 0.0 0.0
03:58 13.8 13.0 95 1020.0 7.6 NW 7.6 0.0 0.0
03:59 13.8 13.0 95 1020.0 6.0 W 7.6 0.0 0.0
04:01 13.8 13.0 95 1019.9 7.6 NW 7.6 0.0 0.0
04:02 13.8 13.0 95 1020.0 4.5 NW 7.6 0.0 0.0
04:03 13.7 12.9 95 1020.0 9.8 NW 9.8 0.0 0.0
04:04 13.7 12.9 95 1019.9 4.5 NW 9.8 0.0 0.0
04:05 13.7 12.9 95 1019.9 7.6 NW 9.8 0.0 0.0
04:06 13.7 12.9 95 1020.1 4.5 W 9.8 0.0 0.0
04:07 13.7 12.9 95 1019.9 6.9 E 9.8 0.0 0.0
04:08 13.7 12.9 95 1019.9 4.5 NW 9.8 0.0 0.0
04:09 13.7 12.9 95 1019.9 6.0 NE 9.8 0.0 0.0
04:10 13.7 12.9 95 1019.9 3.8 N 9.8 0.0 0.0
04:11 13.7 12.9 95 1019.8 3.1 N 9.8 0.0 0.0
04:12 13.8 13.0 95 1019.9 5.4 NW 9.8 0.0 0.0
04:13 13.7 12.9 95 1020.0 7.6 NW 9.8 0.0 0.0
04:14 13.9 13.1 95 1019.8 9.2 W 9.2 0.0 0.0
04:15 13.7 12.9 95 1020.0 8.3 NW 9.2 0.0 0.0
04:16 13.7 12.9 95 1019.9 7.6 WNW 9.2 0.0 0.0
04:17 13.7 12.9 95 1019.9 9.2 N 9.2 0.0 0.0
04:19 13.7 12.9 95 1020.0 6.9 WNW 9.2 0.0 0.0
04:20 13.7 12.9 95 1019.8 7.6 WNW 9.2 0.0 0.0
04:21 13.7 12.9 95 1019.9 3.8 N 9.2 0.0 0.0
04:22 13.7 12.9 95 1019.9 5.4 N 9.2 0.0 0.0
04:23 13.7 12.9 95 1019.8 2.2 NW 9.2 0.0 0.0
04:24 13.7 12.9 95 1019.8 7.6 N 9.2 0.0 0.0
04:25 13.7 12.9 95 1019.8 6.0 NW 9.2 0.0 0.0
04:26 13.7 12.9 95 1019.6 6.9 SW 9.2 0.0 0.0
04:27 13.7 12.9 95 1019.9 7.6 NW 9.2 0.0 0.0
04:28 13.7 12.9 95 1019.6 4.5 N 7.6 0.0 0.0
04:29 13.7 12.9 95 1019.6 5.4 NW 7.6 0.0 0.0
04:30 13.6 12.8 95 1019.5 4.5 NE 7.6 0.0 0.0
04:31 13.6 12.8 95 1019.7 6.0 NW 7.6 0.0 0.0
04:33 13.6 12.8 95 1019.6 3.8 NW 8.3 0.0 0.0
04:34 13.6 12.8 95 1019.7 9.2 NW 9.2 0.0 0.0
04:35 13.6 12.8 95 1019.8 7.6 NW 9.2 0.0 0.0
04:36 13.6 12.8 95 1019.6 6.0 NW 9.2 0.0 0.0
04:37 13.6 12.8 95 1019.7 6.9 N 9.2 0.0 0.0
04:38 13.6 12.8 95 1019.7 6.9 N 9.2 0.0 0.0
04:39 13.6 12.8 95 1019.7 4.5 WNW 9.2 0.0 0.0
04:40 13.6 12.8 95 1019.8 6.0 NW 9.2 0.0 0.0
04:41 13.6 12.8 95 1019.6 5.4 NW 9.2 0.0 0.0
04:42 13.6 12.8 95 1019.6 6.9 N 9.2 0.0 0.0
04:43 13.6 12.8 95 1019.7 4.5 NW 9.2 0.0 0.0
04:44 13.6 12.8 95 1019.7 5.4 WSW 9.2 0.0 0.0
04:45 13.6 12.8 95 1019.8 3.8 NE 7.6 0.0 0.0
04:46 13.6 12.8 95 1019.6 3.8 NE 6.9 0.0 0.0
04:47 13.6 12.8 95 1019.6 3.8 WNW 6.9 0.0 0.0
04:48 13.6 12.8 95 1019.6 5.4 NE 6.9 0.0 0.0
04:50 13.6 12.8 95 1019.6 3.8 NW 6.9 0.0 0.0
04:51 13.5 12.7 95 1019.6 3.8 NW 6.9 0.0 0.0
04:52 13.6 12.8 95 1019.6 4.5 WNW 5.4 0.0 0.0
04:53 13.6 12.8 95 1019.7 3.8 NW 5.4 0.0 0.0
04:54 13.6 12.8 95 1019.7 3.8 NW 5.4 0.0 0.0
04:55 13.6 13.0 96 1019.7 6.0 N 6.0 0.0 0.0
04:56 13.6 13.0 96 1019.6 6.0 N 6.0 0.0 0.0
04:57 13.6 13.0 96 1019.7 3.8 NW 6.0 0.0 0.0
04:58 13.6 12.8 95 1019.6 1.6 NE 6.0 0.0 0.0
04:59 13.6 13.0 96 1019.6 3.8 N 6.0 0.0 0.0
05:00 13.6 13.0 96 1019.6 4.5 WNW 6.0 0.0 0.0
05:01 13.6 13.0 96 1019.6 4.5 WNW 6.0 0.0 0.0
05:02 13.6 13.0 96 1019.6 4.5 WNW 6.0 0.0 0.0
05:03 13.6 13.0 96 1019.7 4.5 WNW 6.0 0.0 0.0
05:04 13.6 13.0 96 1019.7 4.5 WNW 6.0 0.0 0.0
05:05 13.6 13.0 96 1019.6 4.5 WNW 6.0 0.0 0.0
05:06 13.6 13.0 96 1019.7 2.2 N 6.0 0.0 0.0
05:07 13.6 13.0 96 1019.5 3.8 NE 6.0 0.0 0.0
05:09 13.5 12.9 96 1019.6 1.6 NW 6.0 0.0 0.0
05:10 13.5 12.9 96 1019.7 1.6 W 6.0 0.0 0.0
05:11 13.5 12.9 96 1019.7 3.8 NE 6.0 0.0 0.0
05:12 13.5 12.9 96 1019.7 1.6 NW 6.0 0.0 0.0
05:13 13.5 12.9 96 1019.8 1.6 NW 6.0 0.0 0.0
05:14 13.5 12.9 96 1019.8 1.6 NW 6.0 0.0 0.0
05:15 13.5 12.9 96 1019.7 2.2 NW 6.0 0.0 0.0
05:16 13.5 12.9 96 1019.5 2.2 W 3.8 0.0 0.0
05:17 13.5 12.9 96 1019.7 4.5 N 4.5 0.0 0.0
05:18 13.5 12.9 96 1019.6 5.4 NW 5.4 0.0 0.0
05:19 13.5 12.9 96 1019.6 3.1 N 6.0 0.0 0.0
05:20 13.5 12.9 96 1019.6 3.1 N 6.0 0.0 0.0
05:21 13.5 12.9 96 1019.7 2.2 NW 6.0 0.0 0.0
05:22 13.5 12.9 96 1019.7 2.2 N 6.0 0.0 0.0
05:24 13.5 12.9 96 1019.6 6.0 N 6.0 0.0 0.0
05:25 13.5 12.9 96 1019.6 5.4 NW 6.0 0.0 0.0
05:26 13.5 12.9 96 1019.5 3.8 N 6.0 0.0 0.0
05:27 13.5 12.9 96 1019.5 3.1 W 6.0 0.0 0.0
05:28 13.5 12.9 96 1019.4 4.5 N 6.0 0.0 0.0
05:29 13.5 12.9 96 1019.5 3.1 NW 6.0 0.0 0.0
05:30 13.5 12.9 96 1019.4 3.8 NW 6.0 0.0 0.0
05:31 13.5 12.9 96 1019.5 3.8 NW 6.0 0.0 0.0
05:32 13.5 12.9 96 1019.5 3.1 SW 6.0 0.0 0.0
05:33 13.5 12.9 96 1019.5 3.8 W 6.0 0.0 0.0
05:34 13.5 12.9 96 1019.6 3.8 N 6.0 0.0 0.0
05:35 13.5 12.9 96 1019.6 3.1 SE 6.0 0.0 0.0
05:36 13.5 12.9 96 1019.6 6.0 NW 6.0 0.0 0.0
05:37 13.5 12.9 96 1019.4 6.0 NW 6.0 0.0 0.0
05:39 13.5 12.9 96 1019.3 4.5 N 6.0 0.0 0.0
05:40 13.5 12.9 96 1019.4 6.0 N 6.0 0.0 0.0
05:41 13.5 12.9 96 1019.6 2.2 NW 6.0 0.0 0.0
05:42 13.5 12.9 96 1019.7 3.1 NW 6.0 0.0 0.0
05:43 13.5 12.9 96 1019.6 4.5 NW 6.0 0.0 0.0
05:44 13.5 12.9 96 1019.6 4.5 W 6.0 0.0 0.0
05:45 13.5 12.9 96 1019.6 3.1 W 6.0 0.0 0.0
05:46 13.5 12.9 96 1019.5 3.1 NW 6.0 0.0 0.0
05:47 13.5 12.9 96 1019.4 3.1 NW 6.0 0.0 0.0
05:48 13.5 12.9 96 1019.4 5.4 SE 6.0 0.0 0.0
05:49 13.5 12.9 96 1019.4 5.4 N 6.0 0.0 0.0
05:50 13.5 12.9 96 1019.3 5.4 N 6.0 0.0 0.0
05:51 13.5 12.9 96 1019.4 3.1 NE 6.0 0.0 0.0
05:52 13.5 12.9 96 1019.2 1.6 NW 5.4 0.0 0.0
05:54 13.5 12.9 96 1019.4 3.1 NW 5.4 0.0 0.0
05:55 13.5 12.9 96 1019.5 3.1 NW 5.4 0.0 0.0
05:56 13.4 12.8 96 1019.4 2.2 NW 5.4 0.0 0.0
05:57 13.5 12.9 96 1019.4 1.6 NE 5.4 0.0 0.0
05:58 13.5 12.9 96 1019.5 2.2 NE 5.4 0.0 0.0
05:59 13.5 12.9 96 1019.6 2.2 N 5.4 0.0 0.0
06:00 13.5 12.9 96 1019.6 1.6 W 3.8 0.0 0.0
06:01 13.5 12.9 96 1019.6 1.6 W 3.8 0.0 0.0
06:02 13.5 12.9 96 1019.7 3.1 W 3.8 0.0 0.0
06:03 13.5 12.9 96 1019.5 4.5 N 4.5 0.0 0.0
06:04 13.4 12.8 96 1019.6 3.1 N 4.5 0.0 0.0
06:05 13.5 12.9 96 1019.4 1.6 W 4.5 0.0 0.0
06:06 13.4 12.8 96 1019.3 3.8 N 4.5 0.0 0.0
06:08 13.5 12.9 96 1019.4 3.8 NW 4.5 0.0 0.0
06:09 13.5 12.9 96 1019.3 3.8 NW 4.5 0.0 0.0
06:10 13.5 12.9 96 1019.3 3.1 W 4.5 0.0 0.0
06:11 13.5 12.9 96 1019.3 3.8 NE 4.5 0.0 0.0
06:12 13.5 12.9 96 1019.5 1.6 N 6.0 0.0 0.0
06:13 13.5 12.9 96 1019.5 1.6 N 6.0 0.0 0.0
06:14 13.4 12.8 96 1019.4 3.8 N 6.0 0.0 0.0
06:15 13.5 12.9 96 1019.3 5.4 NW 6.0 0.0 0.0
06:16 13.5 12.9 96 1019.5 2.2 N 6.0 0.0 0.0
06:17 13.5 12.9 96 1019.3 3.8 N 6.0 0.0 0.0
06:18 13.5 12.9 96 1019.4 3.8 N 6.0 0.0 0.0
06:19 13.5 12.9 96 1019.4 3.1 N 6.0 0.0 0.0
06:20 13.5 12.9 96 1019.3 8.3 NW 8.3 0.0 0.0
06:21 13.5 12.9 96 1019.5 4.5 N 8.3 0.0 0.0
06:23 13.5 12.9 96 1019.7 3.8 NW 8.3 0.0 0.0
06:24 13.5 12.9 96 1019.4 3.8 NW 8.3 0.0 0.0
06:25 13.5 12.9 96 1019.4 3.8 N 8.3 0.0 0.0
06:26 13.5 12.9 96 1019.3 1.6 NW 8.3 0.0 0.0
06:27 13.5 12.9 96 1019.3 2.2 W 8.3 0.0 0.0
06:28 13.5 12.9 96 1019.5 2.2 NW 8.3 0.0 0.0
06:29 13.5 12.9 96 1019.4 6.9 W 8.3 0.0 0.0
06:30 13.5 12.9 96 1019.3 3.1 NW 8.3 0.0 0.0
06:31 13.5 12.9 96 1019.4 5.4 NW 6.9 0.0 0.0
06:32 13.5 12.9 96 1019.6 4.5 NW 6.9 0.0 0.0
06:33 13.5 12.9 96 1019.5 5.4 WNW 6.9 0.0 0.0
06:34 13.5 12.9 96 1019.6 5.4 NW 6.9 0.0 0.0
06:35 13.5 12.9 96 1019.5 6.0 N 6.9 0.0 0.0
06:36 13.5 12.9 96 1019.5 7.6 NW 7.6 0.0 0.0
06:38 13.5 12.9 96 1019.7 4.5 W 7.6 0.0 0.0
06:39 13.5 12.9 96 1019.7 6.0 NW 7.6 0.0 0.0
06:40 13.5 12.9 96 1019.6 5.4 NW 7.6 0.0 0.0
06:41 13.5 12.9 96 1019.6 7.6 WSW 7.6 0.0 0.0
06:42 13.5 12.9 96 1019.6 7.6 WSW 7.6 0.0 0.0
06:43 13.5 12.9 96 1019.8 7.6 W 7.6 0.0 0.0
06:44 13.5 12.9 96 1019.7 8.3 NW 8.3 0.0 0.0
06:45 13.5 12.9 96 1019.6 4.5 NW 8.3 0.0 0.0
06:46 13.5 12.9 96 1019.8 4.5 NW 8.3 0.0 0.0
06:47 13.5 12.9 96 1019.7 5.4 N 8.3 0.0 0.0
06:48 13.6 13.0 96 1019.8 3.8 NE 8.3 0.0 0.0
06:49 13.6 13.0 96 1019.7 5.4 NW 8.3 0.0 0.0
06:50 13.6 13.0 96 1019.5 3.1 NW 8.3 0.0 0.0
06:51 13.6 13.0 96 1019.5 3.8 W 8.3 0.0 0.0
06:53 13.6 13.0 96 1019.4 4.5 W 8.3 0.0 0.0
06:54 13.7 13.1 96 1019.5 5.4 NW 6.0 0.0 0.0
06:55 13.6 13.0 96 1019.5 4.5 W 6.0 0.0 0.0
06:56 13.6 13.0 96 1019.4 2.2 NNW 6.0 0.0 0.0
06:57 13.6 13.0 96 1019.6 1.6 NW 6.0 0.0 0.0
06:58 13.7 13.1 96 1019.4 2.2 NW 6.0 0.0 0.0
06:59 13.6 13.0 96 1019.4 4.5 NW 6.0 0.0 0.0
07:00 13.7 13.1 96 1019.5 5.4 NW 6.0 0.0 0.0
07:01 13.7 13.1 96 1019.4 5.4 NW 6.0 0.0 0.0
07:02 13.7 13.1 96 1019.5 3.1 NW 6.0 0.0 0.0
07:03 13.7 13.1 96 1019.4 3.8 N 5.4 0.0 0.0
07:04 13.7 13.1 96 1019.3 3.8 N 5.4 0.0 0.0
07:05 13.7 13.1 96 1019.5 7.6 NW 7.6 0.0 0.0
07:06 13.7 13.1 96 1019.5 6.0 SW 7.6 0.0 0.0
07:07 13.8 13.2 96 1019.4 2.2 NW 7.6 0.0 0.0
07:08 13.8 13.2 96 1019.4 3.8 N 7.6 0.0 0.0
07:09 13.8 13.2 96 1019.4 5.4 NW 7.6 0.0 0.0
07:10 13.8 13.2 96 1019.5 2.2 NW 7.6 0.0 0.0
07:12 13.8 13.2 96 1019.7 3.1 NE 7.6 0.0 0.0
07:13 13.8 13.2 96 1019.6 3.8 W 7.6 0.0 0.0
07:14 13.8 13.2 96 1019.6 6.0 NW 7.6 0.0 0.0
07:15 13.8 13.2 96 1019.6 3.8 E 6.0 0.0 0.0
07:16 13.8 13.2 96 1019.6 5.4 NW 6.0 0.0 0.0
07:17 13.8 13.2 96 1019.5 4.5 NW 6.0 0.0 0.0
07:18 13.8 13.2 96 1019.5 5.4 NW 6.0 0.0 0.0
07:19 13.8 13.2 96 1019.5 5.4 NW 6.0 0.0 0.0
07:20 13.8 13.2 96 1019.5 3.8 NW 6.0 0.0 0.0
07:21 13.9 13.3 96 1019.5 4.5 NW 6.0 0.0 0.0
07:22 13.9 13.3 96 1019.7 5.4 W 6.0 0.0 0.0
07:23 13.8 13.2 96 1019.6 6.9 NW 6.9 0.0 0.0
07:24 13.9 13.3 96 1019.6 5.4 NW 6.9 0.0 0.0
07:25 13.9 13.3 96 1019.6 3.8 N 6.9 0.0 0.0
07:28 13.8 13.2 96 1019.6 5.4 NNE 7.6 0.0 0.0
07:29 13.9 13.3 96 1019.7 4.5 N 7.6 0.0 0.0
07:30 13.9 13.3 96 1019.7 3.8 WNW 7.6 0.0 0.0
07:31 13.9 13.3 96 1019.7 5.4 N 7.6 0.0 0.0
07:32 13.9 13.3 96 1019.8 6.0 NW 7.6 0.0 0.0
07:33 13.9 13.3 96 1019.7 4.5 N 7.6 0.0 0.0
07:34 13.9 13.3 96 1019.8 4.5 N 7.6 0.0 0.0
07:35 13.9 13.3 96 1019.7 5.4 NW 7.6 0.0 0.0
07:36 13.9 13.3 96 1019.8 4.5 N 7.6 0.0 0.0
07:37 14.0 13.4 96 1019.7 5.4 W 6.0 0.0 0.0
07:38 14.0 13.4 96 1019.9 6.0 NW 6.9 0.0 0.0
07:39 14.0 13.4 96 1019.8 3.1 NW 6.9 0.0 0.0
07:40 14.0 13.4 96 1019.8 3.8 NW 6.9 0.0 0.0
07:42 14.0 13.4 96 1019.9 4.5 NW 6.9 0.0 0.0
07:43 14.0 13.4 96 1019.8 4.5 NW 6.9 0.0 0.0
07:44 14.0 13.4 96 1020.0 3.1 NW 6.9 0.0 0.0
07:45 14.0 13.4 96 1019.9 5.4 NE 6.9 0.0 0.0
07:46 14.0 13.4 96 1019.9 5.4 NE 6.9 0.0 0.0
07:47 14.0 13.4 96 1019.8 9.2 N 9.8 0.0 0.0
07:48 14.0 13.4 96 1019.9 5.4 WNW 9.8 0.0 0.0
07:49 14.0 13.4 96 1020.0 6.0 NW 9.8 0.0 0.0
07:50 14.0 13.4 96 1020.1 6.9 NW 9.8 0.0 0.0
07:51 14.0 13.4 96 1020.0 2.2 N 9.8 0.0 0.0
07:52 14.0 13.4 96 1019.9 3.8 N 9.8 0.0 0.0
07:53 14.1 13.5 96 1019.9 3.8 W 9.8 0.0 0.0
07:54 14.1 13.5 96 1019.9 3.8 SW 9.8 0.0 0.0
07:55 14.1 13.5 96 1019.9 2.2 NW 9.8 0.0 0.0
07:56 14.1 13.5 96 1020.0 4.5 N 9.8 0.0 0.0
07:58 14.2 13.6 96 1020.1 3.1 WNW 6.9 0.0 0.0
07:59 14.2 13.4 95 1019.9 3.8 W 6.9 0.0 0.0
08:00 14.2 13.6 96 1020.0 5.4 WNW 5.4 0.0 0.0
08:01 14.2 13.6 96 1020.0 5.4 WNW 5.4 0.0 0.0
08:02 14.2 13.6 96 1019.9 3.1 W 5.4 0.0 0.0
08:03 14.2 13.4 95 1020.0 2.2 W 5.4 0.0 0.0
08:04 14.3 13.7 96 1019.9 3.8 NW 5.4 0.0 0.0
08:05 14.3 13.5 95 1020.0 5.4 W 5.4 0.0 0.0
08:06 14.3 13.5 95 1019.8 3.1 W 5.4 0.0 0.0
08:07 14.3 13.5 95 1020.0 1.6 NW 5.4 0.0 0.0
08:08 14.3 13.5 95 1019.8 1.6 NE 5.4 0.0 0.0
08:09 14.3 13.5 95 1019.7 3.1 NW 5.4 0.0 0.0
08:10 14.4 13.6 95 1019.7 2.2 NW 5.4 0.0 0.0
08:12 14.4 13.6 95 1019.8 4.5 N 5.4 0.0 0.0
08:13 14.5 13.7 95 1019.8 0.7 SW 5.4 0.0 0.0
08:14 14.5 13.7 95 1019.9 3.8 SW 5.4 0.0 0.0
08:15 14.5 13.7 95 1019.7 6.9 W 6.9 0.0 0.0
08:16 14.5 13.7 95 1019.8 6.9 W 6.9 0.0 0.0
08:17 14.5 13.7 95 1019.9 4.5 NW 6.9 0.0 0.0
08:18 14.6 13.8 95 1019.8 3.1 N 6.9 0.0 0.0
08:19 14.6 13.8 95 1019.8 3.1 N 6.9 0.0 0.0
08:20 14.6 13.8 95 1019.8 3.8 NW 6.9 0.0 0.0
08:21 14.6 13.8 95 1019.9 2.2 W 6.9 0.0 0.0
08:22 14.6 13.8 95 1019.9 1.6 NW 6.9 0.0 0.0
08:23 14.6 13.8 95 1019.8 3.8 N 6.9 0.0 0.0
08:24 14.7 13.9 95 1019.9 2.2 W 6.9 0.0 0.0
08:25 14.7 13.9 95 1019.7 5.4 NW 6.9 0.0 0.0
08:26 14.8 14.0 95 1019.9 6.9 NW 6.9 0.0 0.0
08:28 14.8 14.0 95 1019.9 6.0 NW 6.9 0.0 0.0
08:29 14.8 14.0 95 1019.8 4.5 NW 6.9 0.0 0.0
08:30 14.8 14.0 95 1019.8 3.1 W 6.9 0.0 0.0
08:31 14.9 14.1 95 1019.8 5.4 W 6.9 0.0 0.0
08:32 14.9 14.1 95 1019.9 6.9 W 6.9 0.0 0.0
08:33 14.9 14.1 95 1020.0 5.4 NW 6.9 0.0 0.0
08:34 14.9 14.1 95 1019.8 3.1 W 6.9 0.0 0.0
08:35 14.9 13.9 94 1019.8 4.5 NW 6.9 0.0 0.0
08:36 14.9 13.9 94 1019.9 4.5 NW 6.9 0.0 0.0
08:37 15.0 14.0 94 1020.0 5.4 N 6.9 0.0 0.0
08:38 15.0 14.0 94 1020.0 5.4 NW 6.9 0.0 0.0
08:39 15.0 14.0 94 1019.9 7.6 W 7.6 0.0 0.0
08:40 15.0 14.0 94 1020.1 8.3 NW 8.3 0.0 0.0
08:41 15.1 14.1 94 1020.0 7.6 WSW 8.3 0.0 0.0
08:43 15.1 14.1 94 1020.2 6.0 W 8.3 0.0 0.0
08:44 15.1 14.1 94 1020.0 7.6 N 8.3 0.0 0.0
08:45 15.1 14.1 94 1020.0 5.4 W 8.3 0.0 0.0
08:46 15.1 14.1 94 1019.9 6.0 NE 8.3 0.0 0.0
08:47 15.1 14.1 94 1020.1 3.8 N 8.3 0.0 0.0
08:48 15.2 14.2 94 1019.9 3.1 NW 8.3 0.0 0.0
08:49 15.2 14.2 94 1020.0 3.8 NW 8.3 0.0 0.0
08:50 15.3 14.3 94 1019.9 3.8 N 8.3 0.0 0.0
08:51 15.3 14.3 94 1019.9 5.4 N 7.6 0.0 0.0
08:52 15.3 14.3 94 1020.0 3.8 W 7.6 0.0 0.0
08:53 15.3 14.3 94 1019.9 4.5 W 7.6 0.0 0.0
08:54 15.3 14.3 94 1020.0 4.5 W 7.6 0.0 0.0
08:55 15.3 14.3 94 1020.1 4.5 W 6.0 0.0 0.0
08:56 15.4 14.3 93 1020.0 6.9 W 6.9 0.0 0.0
08:58 15.4 14.3 93 1020.2 4.5 NW 7.6 0.0 0.0
08:59 15.4 14.3 93 1020.3 3.1 NW 7.6 0.0 0.0
09:00 15.4 14.3 93 1020.1 4.5 NW 7.6 0.0 0.0
09:01 15.4 14.3 93 1020.2 6.9 NW 7.6 0.0 0.0
09:03 15.4 14.3 93 1020.2 3.8 NW 7.6 0.0 0.0
09:04 15.5 14.4 93 1020.1 5.4 N 7.6 0.0 0.0
09:05 15.5 14.4 93 1020.2 6.9 NW 7.6 0.0 0.0
09:06 15.5 14.4 93 1020.2 6.9 NW 7.6 0.0 0.0
09:07 15.5 14.4 93 1020.3 8.3 WNW 8.3 0.0 0.0
09:08 15.5 14.2 92 1020.3 7.6 NW 8.3 0.0 0.0
09:09 15.6 14.3 92 1020.2 5.4 W 8.3 0.0 0.0
09:10 15.6 14.3 92 1020.2 4.5 NW 8.3 0.0 0.0
09:11 15.6 14.3 92 1020.1 3.8 W 8.3 0.0 0.0
09:12 15.6 14.3 92 1020.2 6.0 W 8.3 0.0 0.0
09:13 15.6 14.3 92 1020.2 6.0 W 8.3 0.0 0.0
09:14 15.6 14.3 92 1020.2 6.9 SW 8.3 0.0 0.0
09:15 15.6 14.3 92 1020.2 4.5 W 8.3 0.0 0.0
09:16 15.6 14.3 92 1020.1 6.9 W 8.3 0.0 0.0
09:18 15.7 14.2 91 1020.2 4.5 W 6.9 0.0 0.0
09:19 15.7 14.2 91 1020.3 3.8 WNW 6.9 0.0 0.0
09:20 15.7 14.2 91 1020.1 4.5 W 6.9 0.0 0.0
09:21 15.7 14.2 91 1020.2 5.4 W 6.9 0.0 0.0
09:22 15.7 14.2 91 1020.2 5.4 W 6.9 0.0 0.0
09:23 15.7 14.2 91 1020.2 5.4 NW 6.9 0.0 0.0
09:24 15.7 14.2 91 1020.1 4.5 W 6.9 0.0 0.0
09:25 15.8 14.3 91 1020.3 4.5 W 6.9 0.0 0.0
09:26 15.8 14.3 91 1020.2 4.5 NW 6.9 0.0 0.0
09:27 15.8 14.2 90 1020.3 4.5 SW 6.9 0.0 0.0
09:28 15.8 14.2 90 1020.3 4.5 SW 6.9 0.0 0.0
09:29 15.8 14.2 90 1020.1 3.8 SW 6.0 0.0 0.0
09:30 15.8 14.2 90 1020.1 5.4 NW 6.0 0.0 0.0
09:31 15.8 14.2 90 1020.0 6.9 NW 6.9 0.0 0.0
09:32 15.9 14.1 89 1020.0 5.4 W 8.3 0.0 0.0
09:33 15.9 14.1 89 1020.1 6.9 NW 8.3 0.0 0.0
09:35 15.9 14.1 89 1020.0 6.9 NW 8.3 0.0 0.0
09:36 15.9 13.9 88 1020.0 6.0 NW 8.3 0.0 0.0
09:37 15.9 13.9 88 1020.3 6.0 W 8.3 0.0 0.0
09:38 15.9 13.9 88 1020.3 6.0 W 8.3 0.0 0.0
09:39 16.0 14.0 88 1020.1 4.5 S 8.3 0.0 0.0
09:40 16.0 14.0 88 1020.2 3.8 W 8.3 0.0 0.0
09:41 16.0 14.0 88 1020.1 3.8 W 8.3 0.0 0.0
09:42 16.0 14.0 88 1020.1 5.4 N 8.3 0.0 0.0
09:43 16.1 14.1 88 1020.2 3.8 W 6.9 0.0 0.0
09:44 16.1 14.1 88 1020.3 4.5 NW 6.9 0.0 0.0
09:45 16.1 14.1 88 1020.2 6.0 WNW 6.9 0.0 0.0
09:46 16.2 14.0 87 1020.0 10.7 W 10.7 0.0 0.0
09:47 16.2 14.0 87 1020.3 6.9 W 10.7 0.0 0.0
09:48 16.3 14.0 86 1020.2 9.8 NW 11.4 0.0 0.0
09:49 16.3 14.0 86 1020.3 9.2 NW 11.4 0.0 0.0
09:51 16.3 13.8 85 1020.3 9.2 NW 11.4 0.0 0.0
09:52 16.3 13.6 84 1020.1 6.0 WNW 11.4 0.0 0.0
09:53 16.3 13.4 83 1020.2 8.3 N 11.4 0.0 0.0
09:54 16.3 13.2 82 1020.2 6.9 NW 11.4 0.0 0.0
09:55 16.3 13.2 82 1020.4 5.4 NW 11.4 0.0 0.0
09:56 16.4 13.3 82 1020.3 5.4 N 11.4 0.0 0.0
09:57 16.4 13.1 81 1020.2 8.3 W 11.4 0.0 0.0
09:58 16.4 12.9 80 1020.3 7.6 NW 11.4 0.0 0.0
09:59 16.4 12.8 79 1020.3 10.7 SE 10.7 0.0 0.0
10:00 16.4 12.6 78 1020.3 10.7 NW 10.7 0.0 0.0
10:01 16.4 12.6 78 1020.2 10.7 NW 10.7 0.0 0.0
10:02 16.4 12.6 78 1020.2 7.6 WSW 10.7 0.0 0.0
10:03 16.5 12.7 78 1020.3 8.3 NW 10.7 0.0 0.0
10:04 16.5 12.7 78 1020.3 6.0 N 10.7 0.0 0.0
10:05 16.5 12.7 78 1020.2 6.9 NW 10.7 0.0 0.0
10:07 16.6 12.6 77 1020.1 6.9 NW 10.7 0.0 0.0
10:08 16.6 12.6 77 1020.2 5.4 N 10.7 0.0 0.0
10:09 16.7 12.7 77 1020.1 7.6 NW 10.7 0.0 0.0
10:10 16.7 12.7 77 1020.0 4.5 NW 10.7 0.0 0.0
10:11 16.7 12.7 77 1020.1 2.2 W 8.3 0.0 0.0
10:13 16.8 12.8 77 1020.1 5.4 S 8.3 0.0 0.0
10:14 16.8 12.6 76 1020.1 5.4 W 7.6 0.0 0.0
10:15 16.9 12.7 76 1020.0 6.0 WSW 7.6 0.0 0.0
10:16 17.0 12.7 76 1020.1 6.0 N 7.6 0.0 0.0
10:17 17.0 12.7 76 1020.1 3.8 W 7.6 0.0 0.0
10:18 17.1 12.8 76 1020.1 4.5 NW 7.6 0.0 0.0
10:20 17.1 12.6 75 1020.0 4.5 NW 7.6 0.0 0.0
10:21 17.2 12.5 74 1020.1 4.5 W 7.6 0.0 0.0
10:23 17.2 12.5 74 1020.1 4.5 W 7.6 0.0 0.0
10:24 17.3 12.6 74 1020.0 8.3 SW 8.3 0.0 0.0
10:25 17.3 12.6 74 1020.1 6.0 W 8.3 0.0 0.0
10:26 17.3 12.6 74 1020.1 6.0 W 8.3 0.0 0.0
10:27 17.4 12.7 74 1020.1 9.8 SW 9.8 0.0 0.0
10:28 17.4 12.7 74 1020.1 7.6 W 9.8 0.0 0.0
10:29 17.4 12.7 74 1020.1 4.5 SW 9.8 0.0 0.0
10:30 17.4 12.7 74 1020.0 5.4 SW 9.8 0.0 0.0
10:31 17.5 13.0 75 1020.0 6.9 NW 9.8 0.0 0.0
10:32 17.6 13.1 75 1020.1 5.4 WSW 9.8 0.0 0.0
10:33 17.6 12.9 74 1020.1 4.5 W 9.8 0.0 0.0
10:34 17.6 12.9 74 1020.2 5.4 W 9.8 0.0 0.0
10:35 17.7 12.8 73 1020.1 6.9 WSW 9.8 0.0 0.0
10:36 17.8 12.9 73 1020.3 4.5 NW 9.8 0.0 0.0
10:37 17.8 12.9 73 1020.1 9.2 SW 9.8 0.0 0.0
10:38 17.9 12.8 72 1020.1 4.5 W 9.2 0.0 0.0
10:39 17.8 12.7 72 1020.1 5.4 E 9.2 0.0 0.0
10:40 17.9 12.8 72 1020.1 8.3 SW 9.2 0.0 0.0
10:42 17.9 12.8 72 1020.1 7.6 W 9.2 0.0 0.0
10:43 17.9 12.8 72 1020.0 6.0 SW 9.2 0.0 0.0
10:44 18.0 13.1 73 1020.0 6.9 SW 9.2 0.0 0.0
10:45 18.1 13.2 73 1020.1 7.6 SW 9.2 0.0 0.0
10:46 18.0 13.1 73 1020.1 6.9 SW 9.2 0.0 0.0
10:47 18.1 13.2 73 1020.0 6.0 NW 8.3 0.0 0.0
10:48 18.1 13.0 72 1020.0 5.4 W 8.3 0.0 0.0
10:49 18.0 12.7 71 1019.9 5.4 W 8.3 0.0 0.0
10:50 18.0 12.9 72 1020.0 10.7 WNW 10.7 0.0 0.0
10:51 18.0 12.9 72 1020.1 9.2 W 10.7 0.0 0.0
10:53 18.0 12.9 72 1019.9 5.4 SW 10.7 0.0 0.0
10:54 18.0 12.9 72 1019.9 6.9 W 10.7 0.0 0.0
10:55 17.9 12.8 72 1020.0 6.0 N 10.7 0.0 0.0
10:56 17.9 13.0 73 1020.0 3.8 NW 10.7 0.0 0.0
10:57 18.0 13.1 73 1019.9 6.0 NW 10.7 0.0 0.0
10:58 18.1 13.0 72 1020.2 9.2 NW 10.7 0.0 0.0
10:59 18.1 13.2 73 1020.1 8.3 NW 10.7 0.0 0.0
11:00 18.1 13.2 73 1020.1 6.9 W 10.7 0.0 0.0
11:01 18.1 13.2 73 1020.1 6.9 W 9.2 0.0 0.0
11:02 18.1 13.0 72 1020.0 7.6 SW 9.2 0.0 0.0
11:03 18.1 13.0 72 1020.1 7.6 SW 9.2 0.0 0.0
11:04 18.0 12.7 71 1020.2 6.0 NW 9.2 0.0 0.0
11:05 18.0 12.9 72 1020.1 3.1 W 9.2 0.0 0.0
11:06 18.0 12.7 71 1020.1 11.4 W 11.4 0.0 0.0
11:07 18.1 12.8 71 1020.0 6.9 SW 11.4 0.0 0.0
11:08 18.1 12.6 70 1020.0 7.6 N 11.4 0.0 0.0
11:09 18.1 12.8 71 1020.3 6.0 W 11.4 0.0 0.0
11:10 18.2 13.1 72 1020.1 5.4 W 11.4 0.0 0.0
11:11 18.3 13.2 72 1020.1 6.9 NW 11.4 0.0 0.0
11:13 18.4 12.8 70 1020.0 10.7 W 11.4 0.0 0.0
11:14 18.4 13.1 71 1020.2 8.3 SW 11.4 0.0 0.0
11:15 18.5 13.2 71 1020.1 6.9 N 11.4 0.0 0.0
11:16 18.5 13.2 71 1020.1 6.9 N 11.4 0.0 0.0
11:17 18.5 13.2 71 1020.2 8.3 NW 10.7 0.0 0.0
11:18 18.5 13.4 72 1020.1 4.5 NW 10.7 0.0 0.0
11:19 18.5 13.6 73 1020.3 5.4 S 10.7 0.0 0.0
11:20 18.6 13.5 72 1020.2 9.2 NW 10.7 0.0 0.0
11:21 18.6 13.2 71 1020.1 6.9 WSW 10.7 0.0 0.0
11:22 18.6 13.2 71 1020.1 7.6 SW 10.7 0.0 0.0
11:23 18.7 13.3 71 1020.1 6.9 NW 10.7 0.0 0.0
11:24 18.8 13.7 72 1020.1 6.9 WSW 9.2 0.0 0.0
11:25 18.9 13.8 72 1020.1 6.0 NW 9.2 0.0 0.0
11:26 19.0 14.1 73 1020.1 6.0 W 9.2 0.0 0.0
11:27 19.1 13.9 72 1020.1 6.9 NW 9.2 0.0 0.0
11:29 19.1 13.5 70 1020.2 7.6 W 9.8 0.0 0.0
11:30 19.1 13.5 70 1020.1 4.5 W 9.8 0.0 0.0
11:31 19.0 13.4 70 1019.9 5.4 NE 9.8 0.0 0.0
11:32 19.0 13.4 70 1020.0 6.9 NW 9.8 0.0 0.0
11:33 19.0 13.4 70 1020.1 6.9 WSW 9.8 0.0 0.0
11:34 18.9 13.3 70 1020.1 5.4 W 9.8 0.0 0.0
11:35 18.9 13.3 70 1020.1 6.0 S 9.8 0.0 0.0
11:36 18.8 13.4 71 1020.2 8.3 NW 9.8 0.0 0.0
11:37 18.8 13.2 70 1020.1 8.3 W 9.8 0.0 0.0
11:38 18.7 13.1 70 1020.2 9.2 W 9.8 0.0 0.0
11:39 18.6 13.0 70 1020.2 9.2 W 9.2 0.0 0.0
11:40 18.5 12.9 70 1020.1 6.0 W 9.2 0.0 0.0
11:41 18.5 12.9 70 1020.2 9.8 SW 9.8 0.0 0.0
11:43 18.4 13.1 71 1020.1 7.6 W 9.8 0.0 0.0
11:44 18.3 13.0 71 1020.2 6.0 NW 9.8 0.0 0.0
11:45 18.2 12.9 71 1020.2 6.9 NW 9.8 0.0 0.0
11:46 18.2 12.9 71 1020.2 6.0 W 9.8 0.0 0.0
11:47 18.1 12.8 71 1020.0 2.2 SW 9.8 0.0 0.0
11:48 18.2 13.1 72 1020.2 6.0 W 9.8 0.0 0.0
11:49 18.1 13.0 72 1020.1 9.8 NW 9.8 0.0 0.0
11:50 18.2 13.1 72 1020.0 6.9 N 9.8 0.0 0.0
11:51 18.2 13.1 72 1020.2 8.3 S 9.8 0.0 0.0
11:52 18.2 13.1 72 1020.0 7.6 W 9.8 0.0 0.0
11:53 18.1 13.0 72 1020.1 6.9 SW 9.8 0.0 0.0
11:54 18.1 12.8 71 1020.1 8.3 SW 9.8 0.0 0.0
11:55 18.1 12.8 71 1020.0 8.3 W 9.8 0.0 0.0
11:56 18.2 13.1 72 1019.9 5.4 SW 9.8 0.0 0.0
11:57 18.2 13.1 72 1020.0 7.6 S 9.8 0.0 0.0
11:58 18.3 13.2 72 1020.0 5.4 SW 9.8 0.0 0.0
11:59 18.4 13.1 71 1019.9 11.4 SW 11.4 0.0 0.0
12:00 18.4 13.1 71 1019.8 6.0 SW 11.4 0.0 0.0
12:02 18.4 13.1 71 1020.0 6.0 SW 11.4 0.0 0.0
12:03 18.4 13.1 71 1019.9 6.0 SW 11.4 0.0 0.0
12:04 18.4 13.1 71 1019.9 6.0 SW 11.4 0.0 0.0
12:05 18.4 13.1 71 1019.9 6.0 SW 11.4 0.0 0.0
12:06 18.8 13.4 71 1019.8 6.9 SW 11.4 0.0 0.0
12:07 18.9 13.3 70 1020.1 7.6 W 11.4 0.0 0.0
12:08 18.9 13.3 70 1019.8 8.3 W 11.4 0.0 0.0
12:09 18.9 13.3 70 1019.8 7.6 SW 11.4 0.0 0.0
12:10 18.9 13.1 69 1019.8 6.9 NW 8.3 0.0 0.0
12:11 19.0 13.6 71 1019.7 5.4 SW 8.3 0.0 0.0
12:12 19.0 13.8 72 1019.9 4.5 SW 8.3 0.0 0.0
12:13 19.3 13.9 71 1019.8 4.5 W 8.3 0.0 0.0
12:14 19.3 13.9 71 1019.9 4.5 W 8.3 0.0 0.0
12:15 19.4 13.8 70 1019.8 3.8 W 8.3 0.0 0.0
12:16 19.5 13.9 70 1019.8 6.0 N 8.3 0.0 0.0
12:18 19.4 13.4 68 1019.6 6.0 NW 8.3 0.0 0.0
12:19 19.4 13.4 68 1019.8 6.9 NW 8.3 0.0 0.0
12:20 19.3 13.3 68 1019.8 6.0 S 7.6 0.0 0.0
12:21 19.3 13.3 68 1019.8 6.0 S 7.6 0.0 0.0
12:22 19.3 13.5 69 1019.9 6.9 N 7.6 0.0 0.0
12:23 19.3 13.5 69 1019.6 8.3 N 8.3 0.0 0.0
12:24 19.3 13.5 69 1019.7 5.4 SW 8.3 0.0 0.0
12:25 19.4 13.8 70 1019.8 8.3 W 8.3 0.0 0.0
12:26 19.5 13.7 69 1019.8 3.8 WNW 8.3 0.0 0.0
12:27 19.5 13.7 69 1019.7 7.6 WNW 8.3 0.0 0.0
12:28 19.7 13.9 69 1019.8 11.4 W 11.4 0.0 0.0
12:29 19.5 13.7 69 1019.9 4.5 W 11.4 0.0 0.0
12:30 19.4 13.6 69 1019.8 9.2 SW 11.4 0.0 0.0
12:31 19.4 13.6 69 1019.9 6.9 W 11.4 0.0 0.0
12:32 19.3 13.3 68 1019.8 6.0 NW 11.4 0.0 0.0
12:33 19.3 13.3 68 1019.8 8.3 SW 11.4 0.0 0.0
12:34 19.2 13.2 68 1019.7 7.6 W 11.4 0.0 0.0
12:36 19.0 13.0 68 1019.8 9.2 SW 11.4 0.0 0.0
12:37 18.9 12.9 68 1019.8 6.9 W 11.4 0.0 0.0
12:38 18.9 12.9 68 1019.8 6.9 W 11.4 0.0 0.0
12:39 18.8 12.8 68 1019.8 7.6 WSW 11.4 0.0 0.0
12:40 18.7 12.7 68 1019.7 6.0 W 11.4 0.0 0.0
12:41 18.7 12.7 68 1019.7 6.9 WSW 11.4 0.0 0.0
12:42 18.6 12.8 69 1019.7 7.6 NW 11.4 0.0 0.0
12:43 18.5 12.7 69 1019.7 6.0 S 11.4 0.0 0.0
12:44 18.5 12.7 69 1019.7 6.9 SW 11.4 0.0 0.0
12:45 18.4 12.6 69 1019.7 6.0 S 11.4 0.0 0.0
12:46 18.4 12.8 70 1019.7 5.4 N 11.4 0.0 0.0
12:47 18.3 12.7 70 1019.7 5.4 NW 7.6 0.0 0.0
12:48 18.3 12.7 70 1019.7 6.9 NW 8.3 0.0 0.0
12:49 18.3 12.7 70 1019.7 5.4 SW 8.3 0.0 0.0
12:50 18.3 12.7 70 1019.8 5.4 SW 8.3 0.0 0.0
12:51 18.3 12.7 70 1019.6 5.4 S 8.3 0.0 0.0
12:53 18.3 12.7 70 1019.6 6.9 SW 8.3 0.0 0.0
12:54 18.3 12.7 70 1019.5 6.9 N 8.3 0.0 0.0
12:55 18.3 12.7 70 1019.6 6.0 WSW 8.3 0.0 0.0
12:56 18.3 13.0 71 1019.7 6.9 SW 8.3 0.0 0.0
12:57 18.3 12.7 70 1019.6 6.9 SW 8.3 0.0 0.0
12:58 18.3 13.0 71 1019.8 5.4 W 8.3 0.0 0.0
12:59 18.3 13.0 71 1019.7 7.6 SW 7.6 0.0 0.0
13:00 18.3 13.0 71 1019.6 7.6 SW 7.6 0.0 0.0
13:01 18.3 13.0 71 1019.5 7.6 SW 7.6 0.0 0.0
13:02 18.2 12.9 71 1019.5 4.5 W 7.6 0.0 0.0
13:03 18.2 12.9 71 1019.6 6.9 W 7.6 0.0 0.0
13:04 18.2 12.9 71 1019.6 6.0 W 7.6 0.0 0.0
13:05 18.2 12.9 71 1019.6 5.4 WSW 7.6 0.0 0.0
13:06 18.2 12.9 71 1019.6 4.5 SW 7.6 0.0 0.0
13:07 18.1 12.8 71 1019.5 6.9 SW 7.6 0.0 0.0
13:08 18.1 12.8 71 1019.6 6.9 W 7.6 0.0 0.0
13:09 18.1 12.8 71 1019.5 6.9 SW 7.6 0.0 0.0
13:10 18.1 12.8 71 1019.5 3.1 W 7.6 0.0 0.0
13:11 18.1 12.8 71 1019.5 3.8 W 6.9 0.0 0.0
13:12 18.1 12.8 71 1019.5 4.5 W 6.9 0.0 0.0
13:13 18.1 12.8 71 1019.4 4.5 WSW 6.9 0.0 0.0
13:14 18.1 13.0 72 1019.5 3.8 NW 6.9 0.0 0.0
13:16 18.3 13.2 72 1019.6 7.6 W 7.6 0.0 0.0
13:17 18.4 13.3 72 1019.5 7.6 SW 7.6 0.0 0.0
13:18 18.4 13.3 72 1019.5 7.6 SW 7.6 0.0 0.0
13:19 18.5 13.4 72 1019.5 5.4 NW 7.6 0.0 0.0
13:20 18.5 13.4 72 1019.5 3.8 W 7.6 0.0 0.0
13:21 18.5 13.2 71 1019.3 4.5 SW 7.6 0.0 0.0
13:22 18.5 13.2 71 1019.5 5.4 SW 7.6 0.0 0.0
13:23 18.5 13.2 71 1019.5 7.6 W 7.6 0.0 0.0
13:24 18.5 13.2 71 1019.6 6.9 SW 7.6 0.0 0.0
13:25 18.5 13.2 71 1019.6 6.0 WNW 7.6 0.0 0.0
13:26 18.5 13.2 71 1019.3 7.6 W 7.6 0.0 0.0
13:27 18.4 13.1 71 1019.4 9.2 NW 9.2 0.0 0.0
13:28 18.4 13.1 71 1019.4 9.8 SW 9.8 0.0 0.0
13:29 18.3 13.0 71 1019.5 6.9 SW 9.8 0.0 0.0
13:30 18.3 13.0 71 1019.4 7.6 SW 9.8 0.0 0.0
13:32 18.2 12.9 71 1019.3 5.4 SW 9.8 0.0 0.0
13:33 18.2 12.9 71 1019.4 6.0 SW 9.8 0.0 0.0
13:34 18.2 12.9 71 1019.2 6.9 W 9.8 0.0 0.0
13:35 18.2 12.9 71 1019.3 9.2 SW 9.8 0.0 0.0
13:36 18.2 12.9 71 1019.4 9.8 SW 9.8 0.0 0.0
13:37 18.2 12.9 71 1019.3 7.6 SW 9.8 0.0 0.0
13:38 18.2 12.9 71 1019.3 8.3 SW 9.8 0.0 0.0
13:39 18.2 12.9 71 1019.2 8.3 SW 11.4 0.0 0.0
13:40 18.2 12.6 70 1019.3 9.2 WSW 11.4 0.0 0.0
13:41 18.2 12.6 70 1019.4 9.8 S 11.4 0.0 0.0
13:42 18.2 12.6 70 1019.3 9.2 WSW 12.1 0.0 0.0
13:43 18.2 12.4 69 1019.4 9.8 SW 13.0 0.0 0.0
13:44 18.1 12.6 70 1019.3 11.4 SE 13.0 0.0 0.0
13:45 18.2 12.6 70 1019.3 10.7 SW 13.0 0.0 0.0
13:46 18.2 12.6 70 1019.3 12.1 SW 13.0 0.0 0.0
13:48 18.2 12.6 70 1019.1 9.8 SW 13.0 0.0 0.0
13:49 18.1 12.6 70 1019.4 13.6 S 13.6 0.0 0.0
13:50 18.1 12.6 70 1019.3 12.1 SW 13.6 0.0 0.0
13:51 18.1 12.6 70 1019.2 9.2 S 13.6 0.0 0.0
13:52 18.1 12.6 70 1019.1 8.3 S 13.6 0.0 0.0
13:53 18.2 12.9 71 1019.1 11.4 SSW 13.6 0.0 0.0
13:54 18.3 13.0 71 1019.2 9.8 S 13.6 0.0 0.0
13:55 18.3 13.0 71 1019.3 13.0 SW 13.6 0.0 0.0
13:56 18.4 13.1 71 1019.2 9.8 S 13.6 0.0 0.0
13:57 18.4 12.8 70 1019.2 9.8 S 13.6 0.0 0.0
13:58 18.4 12.8 70 1019.1 9.2 W 13.6 0.0 0.0
13:59 18.5 12.9 70 1019.1 10.7 W 13.0 0.0 0.0
14:00 18.5 12.9 70 1019.1 10.7 W 13.0 0.0 0.0
14:01 18.7 13.1 70 1019.1 8.3 S 13.0 0.0 0.0
14:02 18.7 13.1 70 1019.2 9.2 SE 13.0 0.0 0.0
14:04 19.0 13.2 69 1019.1 9.2 SW 13.6 0.0 0.0
14:05 18.8 13.2 70 1019.1 11.4 S 13.6 0.0 0.0
14:06 18.8 13.2 70 1019.1 12.1 SW 13.6 0.0 0.0
14:07 18.8 13.2 70 1019.1 9.2 SSE 13.6 0.0 0.0
14:08 18.8 13.2 70 1019.0 9.2 SW 13.6 0.0 0.0
14:09 18.8 13.2 70 1019.0 8.3 S 13.6 0.0 0.0
14:10 18.8 13.0 69 1019.0 13.0 S 13.6 0.0 0.0
14:11 18.8 13.0 69 1019.1 9.8 S 13.6 0.0 0.0
14:12 18.7 12.9 69 1019.0 14.5 S 14.5 0.0 0.0
14:13 18.7 12.9 69 1019.0 9.8 SW 14.5 0.0 0.0
14:14 18.7 12.7 68 1019.0 10.7 SW 14.5 0.0 0.0
14:15 18.6 12.6 68 1019.0 10.7 S 14.5 0.0 0.0
14:16 18.6 12.4 67 1019.0 9.8 SW 14.5 0.0 0.0
14:17 18.7 12.9 69 1019.1 7.6 S 14.5 0.0 0.0
14:18 18.7 13.1 70 1019.1 12.1 S 14.5 0.0 0.0
14:19 18.8 13.0 69 1019.1 6.0 SW 14.5 0.0 0.0
14:20 18.9 13.3 70 1019.1 9.8 SW 14.5 0.0 0.0
14:21 19.0 13.0 68 1018.9 13.0 NNE 14.5 0.0 0.0
14:22 18.9 12.9 68 1019.1 10.7 S 13.0 0.0 0.0
14:24 18.9 12.9 68 1018.9 10.7 SW 13.0 0.0 0.0
14:25 18.9 12.9 68 1018.9 10.7 SW 13.0 0.0 0.0
14:26 18.9 12.6 67 1019.0 11.4 S 13.0 0.0 0.0
14:27 18.9 12.4 66 1018.9 13.0 SW 13.0 0.0 0.0
14:28 18.9 12.6 67 1018.9 9.8 SW 13.0 0.0 0.0
14:29 18.8 12.6 67 1019.0 13.0 S 13.0 0.0 0.0
14:30 18.9 12.9 68 1019.0 12.1 S 13.0 0.0 0.0
14:31 18.9 12.9 68 1018.9 9.8 SE 13.0 0.0 0.0
14:32 18.9 12.9 68 1018.8 10.7 S 13.0 0.0 0.0
14:33 18.9 12.9 68 1019.0 10.7 SW 13.0 0.0 0.0
14:34 18.8 12.8 68 1018.9 8.3 SW 13.0 0.0 0.0
14:35 18.8 13.0 69 1018.8 8.3 S 13.0 0.0 0.0
14:36 19.0 13.2 69 1019.1 10.7 SSW 13.0 0.0 0.0
14:37 18.9 12.9 68 1018.8 11.4 S 13.0 0.0 0.0
14:38 18.8 13.0 69 1019.0 11.4 S 13.0 0.0 0.0
14:39 18.9 12.9 68 1019.1 12.1 SE 12.1 0.0 0.0
14:41 18.9 13.1 69 1019.1 11.4 S 13.0 0.0 0.0
14:42 18.9 13.1 69 1018.9 10.7 SW 13.0 0.0 0.0
14:43 18.9 12.9 68 1019.0 13.6 S 13.6 0.0 0.0
14:44 18.9 13.1 69 1019.1 12.1 SW 13.6 0.0 0.0
14:45 18.9 13.3 70 1019.0 9.8 SW 13.6 0.0 0.0
14:46 19.0 13.2 69 1019.0 11.4 SW 13.6 0.0 0.0
14:47 19.0 13.0 68 1019.0 9.8 SW 13.6 0.0 0.0
14:48 19.0 13.0 68 1018.9 14.5 S 14.5 0.0 0.0
14:49 19.0 13.2 69 1018.9 9.2 S 14.5 0.0 0.0
14:50 19.1 13.3 69 1019.1 10.7 S 14.5 0.0 0.0
14:52 19.0 13.0 68 1019.1 13.0 SE 14.5 0.0 0.0
14:53 19.0 13.0 68 1018.9 15.2 S 15.2 0.0 0.0
14:54 19.0 13.0 68 1019.1 11.4 SW 15.2 0.0 0.0
14:55 18.9 13.1 69 1018.9 10.7 SW 15.2 0.0 0.0
14:56 18.8 13.0 69 1019.0 11.4 S 15.2 0.0 0.0
14:57 18.8 13.0 69 1018.9 11.4 S 15.2 0.0 0.0
14:58 18.7 12.9 69 1018.9 12.1 WNW 15.2 0.0 0.0
15:00 18.6 12.8 69 1018.9 13.6 S 15.2 0.0 0.0
15:01 18.6 12.8 69 1018.9 13.6 S 15.2 0.0 0.0
15:02 18.4 12.4 68 1019.0 14.5 S 15.2 0.0 0.0
15:03 18.4 12.4 68 1019.0 9.8 S 15.2 0.0 0.0
15:04 18.3 12.5 69 1018.9 13.0 SE 14.5 0.0 0.0
15:06 18.2 12.2 68 1019.0 13.6 S 14.5 0.0 0.0
15:07 18.2 12.2 68 1019.0 13.6 S 14.5 0.0 0.0
15:08 18.2 12.4 69 1018.9 13.0 S 14.5 0.0 0.0
15:09 18.3 12.7 70 1018.9 13.0 SW 14.5 0.0 0.0
15:10 18.3 12.5 69 1018.8 12.1 SW 14.5 0.0 0.0
15:11 18.3 12.5 69 1018.8 13.0 S 14.5 0.0 0.0
15:12 18.3 12.7 70 1018.9 13.0 S 13.6 0.0 0.0
15:13 18.4 13.1 71 1018.8 13.0 SE 13.6 0.0 0.0
15:14 18.4 13.1 71 1018.8 13.0 S 13.6 0.0 0.0
15:15 18.4 13.1 71 1018.8 13.0 S 13.6 0.0 0.0
15:16 18.5 13.2 71 1019.0 11.4 S 13.6 0.0 0.0
15:17 18.5 13.4 72 1018.8 12.1 SSW 13.6 0.0 0.0
15:18 18.6 13.5 72 1018.8 10.7 S 13.0 0.0 0.0
15:19 18.7 13.6 72 1018.9 11.4 SW 13.0 0.0 0.0
15:20 18.8 13.4 71 1019.0 12.1 S 14.5 0.0 0.0
15:21 18.8 13.2 70 1018.8 10.7 S 14.5 0.0 0.0
15:23 18.7 13.1 70 1018.9 14.5 S 14.5 0.0 0.0
15:24 18.7 13.1 70 1018.7 11.4 SW 14.5 0.0 0.0
15:25 18.7 13.1 70 1018.8 11.4 SE 14.5 0.0 0.0
15:26 18.7 13.1 70 1018.7 13.0 S 14.5 0.0 0.0
15:27 18.7 12.9 69 1018.8 11.4 S 14.5 0.0 0.0
15:28 18.7 13.1 70 1018.8 13.6 SE 14.5 0.0 0.0
15:29 18.7 13.1 70 1018.8 12.1 S 14.5 0.0 0.0
15:30 18.7 12.9 69 1018.9 13.6 S 14.5 0.0 0.0
15:31 18.7 13.1 70 1018.7 13.0 S 14.5 0.0 0.0
15:32 18.7 13.3 71 1018.7 12.1 S 14.5 0.0 0.0
15:33 18.7 13.1 70 1018.8 15.2 S 15.2 0.0 0.0
15:34 18.7 12.9 69 1018.7 15.2 SW 15.2 0.0 0.0
15:35 18.7 12.9 69 1018.6 12.1 SW 15.2 0.0 0.0
15:36 18.6 12.8 69 1018.8 13.6 SW 15.2 0.0 0.0
15:37 18.6 12.8 69 1018.7 11.4 SW 15.2 0.0 0.0
15:38 18.6 13.0 70 1018.8 11.4 SW 15.2 0.0 0.0
15:40 18.5 12.9 70 1018.8 12.1 SW 15.2 0.0 0.0
15:41 18.4 12.8 70 1018.8 12.1 S 15.2 0.0 0.0
15:42 18.4 12.8 70 1018.6 11.4 S 15.2 0.0 0.0
15:43 18.4 13.1 71 1018.8 14.5 SW 15.2 0.0 0.0
15:44 18.3 12.7 70 1018.8 13.0 SW 14.5 0.0 0.0
15:45 18.3 12.7 70 1018.8 14.5 S 14.5 0.0 0.0
15:46 18.2 12.6 70 1018.8 11.4 SW 15.2 0.0 0.0
15:47 18.2 12.6 70 1018.8 14.5 S 15.2 0.0 0.0
15:48 18.2 12.9 71 1018.8 15.2 S 15.2 0.0 0.0
15:49 18.1 12.8 71 1018.9 10.7 SW 15.2 0.0 0.0
15:50 18.1 12.6 70 1018.8 9.8 S 15.2 0.0 0.0
15:51 18.1 12.6 70 1018.8 9.8 S 15.2 0.0 0.0
15:52 18.1 12.6 70 1018.7 9.8 S 15.2 0.0 0.0
15:53 18.1 12.8 71 1018.8 11.4 SE 15.2 0.0 0.0
15:54 18.1 12.8 71 1018.8 13.6 S 15.2 0.0 0.0
15:55 18.1 12.8 71 1018.8 13.0 SW 15.2 0.0 0.0
15:56 18.1 12.8 71 1018.7 10.7 S 15.2 0.0 0.0
15:57 18.1 12.8 71 1018.7 14.5 NW 15.2 0.0 0.0
15:58 18.1 12.8 71 1018.8 9.8 SW 15.2 0.0 0.0
16:00 18.0 12.7 71 1018.8 12.1 SW 14.5 0.0 0.0
16:01 18.0 12.7 71 1018.7 13.0 SW 14.5 0.0 0.0
16:02 17.9 12.8 72 1018.7 17.4 SW 17.4 0.0 0.0
16:03 17.9 12.6 71 1018.7 13.6 SSW 17.4 0.0 0.0
16:04 18.1 12.8 71 1018.8 11.4 NW 17.4 0.0 0.0
16:05 18.1 12.8 71 1018.7 15.2 SE 17.4 0.0 0.0
16:06 18.0 12.7 71 1018.6 12.1 S 17.4 0.0 0.0
16:07 18.0 12.7 71 1018.7 14.5 SW 17.4 0.0 0.0
16:08 17.9 12.6 71 1018.8 12.1 S 17.4 0.0 0.0
16:09 17.9 12.6 71 1018.6 9.8 S 17.4 0.0 0.0
16:10 17.9 12.8 72 1018.6 9.8 SE 17.4 0.0 0.0
16:11 17.9 12.8 72 1018.7 11.4 SW 17.4 0.0 0.0
16:12 18.0 13.1 73 1018.6 11.4 SW 17.4 0.0 0.0
16:13 18.0 13.1 73 1018.7 10.7 SW 15.2 0.0 0.0
16:14 18.1 13.2 73 1018.7 13.0 SW 15.2 0.0 0.0
16:15 18.2 13.3 73 1019.0 13.0 SW 15.2 0.0 0.0
16:16 18.2 13.1 72 1018.7 11.4 SW 14.5 0.0 0.0
16:17 18.1 12.8 71 1018.7 13.6 S 14.5 0.0 0.0
16:19 18.0 12.7 71 1018.7 15.9 W 15.9 0.0 0.0
16:20 17.9 12.4 70 1018.6 11.4 NNE 15.9 0.0 0.0
16:21 17.9 12.6 71 1018.4 9.8 SW 15.9 0.0 0.0
16:22 17.9 12.6 71 1018.5 14.5 S 15.9 0.0 0.0
16:23 18.0 12.7 71 1018.6 14.5 S 15.9 0.0 0.0
16:24 17.9 12.6 71 1018.5 11.4 SW 15.9 0.0 0.0
16:25 17.9 12.6 71 1018.5 14.5 SW 15.9 0.0 0.0
16:26 17.8 12.5 71 1018.4 8.3 W 15.9 0.0 0.0
16:27 17.8 12.5 71 1018.5 12.1 S 15.9 0.0 0.0
16:28 17.7 12.4 71 1018.5 13.6 S 15.9 0.0 0.0
16:29 17.7 12.4 71 1018.5 11.4 S 14.5 0.0 0.0
16:30 17.7 12.4 71 1018.4 9.2 SW 14.5 0.0 0.0
16:31 17.7 12.4 71 1018.4 13.0 S 14.5 0.0 0.0
16:32 17.5 12.2 71 1018.3 9.8 SE 14.5 0.0 0.0
16:33 17.5 12.2 71 1018.5 15.2 S 15.2 0.0 0.0
16:34 17.4 12.1 71 1018.4 14.5 NW 15.2 0.0 0.0
16:35 17.4 12.1 71 1018.3 14.5 S 15.2 0.0 0.0
16:37 17.2 11.9 71 1018.5 15.2 SSW 15.2 0.0 0.0
16:38 17.2 11.9 71 1018.5 14.5 S 15.2 0.0 0.0
16:39 17.1 11.8 71 1018.5 14.5 SW 15.2 0.0 0.0
16:40 17.0 11.7 71 1018.4 13.0 SW 15.2 0.0 0.0
16:41 17.0 11.9 72 1018.5 6.9 S 15.2 0.0 0.0
16:42 16.9 11.8 72 1018.6 13.0 SE 15.2 0.0 0.0
16:43 16.9 11.8 72 1018.4 13.6 SSW 15.2 0.0 0.0
16:44 16.9 11.8 72 1018.3 13.6 S 15.2 0.0 0.0
16:45 16.9 11.8 72 1018.4 12.1 S 15.2 0.0 0.0
16:46 16.9 12.0 73 1018.3 10.7 SW 15.2 0.0 0.0
16:47 16.9 12.0 73 1018.3 10.7 SW 15.2 0.0 0.0
16:48 16.9 12.2 74 1018.3 7.6 SW 14.5 0.0 0.0
16:49 17.0 12.3 74 1018.3 9.2 S 14.5 0.0 0.0
16:50 17.0 12.3 74 1018.3 10.7 S 13.6 0.0 0.0
16:51 17.1 12.6 75 1018.3 14.5 S 14.5 0.0 0.0
16:52 17.1 12.4 74 1018.3 15.2 S 17.4 0.0 0.0
16:53 17.1 12.4 74 1018.4 12.1 S 17.4 0.0 0.0
16:55 17.1 12.6 75 1018.3 14.5 SW 17.4 0.0 0.0
16:56 17.1 12.6 75 1018.3 9.2 S 17.4 0.0 0.0
16:57 17.1 12.6 75 1018.3 11.4 S 17.4 0.0 0.0
16:58 17.1 12.6 75 1018.3 16.8 SSW 17.4 0.0 0.0
16:59 17.1 12.6 75 1018.4 13.0 SW 17.4 0.0 0.0
17:00 17.1 12.6 75 1018.4 15.2 SW 17.4 0.0 0.0
17:01 17.1 12.6 75 1018.2 15.2 SW 17.4 0.0 0.0
17:02 17.0 12.5 75 1018.3 13.0 S 16.8 0.0 0.0
17:03 16.9 12.4 75 1018.4 10.7 SW 16.8 0.0 0.0
17:04 16.9 12.4 75 1018.5 14.5 SW 16.8 0.0 0.0
17:05 16.9 12.4 75 1018.3 12.1 S 16.8 0.0 0.0
17:06 16.8 12.4 75 1018.4 13.0 SSW 16.8 0.0 0.0
17:07 16.8 12.4 75 1018.2 13.0 SW 16.8 0.0 0.0
17:08 16.8 12.4 75 1018.3 12.1 SW 15.2 0.0 0.0
17:09 16.7 12.3 75 1018.4 9.2 S 15.2 0.0 0.0
17:10 16.7 12.3 75 1018.3 14.5 S 15.2 0.0 0.0
17:11 16.7 12.3 75 1018.3 14.5 S 15.2 0.0 0.0
17:12 16.6 12.2 75 1018.3 14.5 SW 14.5 0.0 0.0
17:13 16.6 12.2 75 1018.2 12.1 SW 14.5 0.0 0.0
17:14 16.5 12.1 75 1018.3 10.7 S 14.5 0.0 0.0
17:15 16.5 12.3 76 1018.2 9.8 NW 14.5 0.0 0.0
17:16 16.5 12.3 76 1018.1 9.2 S 14.5 0.0 0.0
17:17 16.5 12.3 76 1018.1 10.7 S 14.5 0.0 0.0
17:18 16.5 12.3 76 1018.1 11.4 S 14.5 0.0 0.0
17:20 16.4 12.2 76 1018.0 10.7 S 14.5 0.0 0.0
17:21 16.4 12.2 76 1018.0 14.5 SW 14.5 0.0 0.0
17:22 16.3 12.1 76 1018.1 10.7 NW 14.5 0.0 0.0
17:23 16.3 12.1 76 1017.9 12.1 S 14.5 0.0 0.0
17:24 16.3 12.1 76 1018.0 13.0 SW 14.5 0.0 0.0
17:25 16.2 12.0 76 1018.0 9.8 SW 14.5 0.0 0.0
17:26 16.2 12.0 76 1017.9 10.7 S 14.5 0.0 0.0
17:27 16.2 12.0 76 1018.0 10.7 SE 14.5 0.0 0.0
17:28 16.2 12.2 77 1018.1 10.7 S 14.5 0.0 0.0
17:29 16.2 12.2 77 1018.0 9.8 S 14.5 0.0 0.0
17:30 16.1 12.1 77 1017.9 10.7 SW 14.5 0.0 0.0
17:31 16.1 12.1 77 1018.1 12.1 SW 14.5 0.0 0.0
17:32 16.1 12.1 77 1018.0 13.0 SW 13.0 0.0 0.0
17:33 16.1 12.1 77 1017.9 15.2 SW 15.2 0.0 0.0
17:34 16.1 12.1 77 1018.2 15.2 SW 15.2 0.0 0.0
17:35 16.0 12.0 77 1018.0 12.1 S 15.2 0.0 0.0
17:36 16.0 12.0 77 1017.9 15.2 SW 15.2 0.0 0.0
17:37 15.9 11.9 77 1017.8 9.8 SW 15.2 0.0 0.0
17:38 15.9 11.9 77 1017.8 11.4 S 15.2 0.0 0.0
17:39 15.9 11.9 77 1017.8 12.1 SSW 15.2 0.0 0.0
17:40 15.9 11.9 77 1017.9 12.1 S 15.2 0.0 0.0
17:41 15.8 12.0 78 1017.9 14.5 SW 15.2 0.0 0.0
17:42 15.8 12.0 78 1017.8 12.1 NW 15.2 0.0 0.0
17:43 15.8 12.0 78 1017.8 11.4 SW 15.2 0.0 0.0
17:44 15.8 12.0 78 1017.9 11.4 SW 15.2 0.0 0.0
17:45 15.8 12.0 78 1017.9 13.6 S 15.2 0.0 0.0
17:46 15.8 12.0 78 1017.7 13.0 SW 14.5 0.0 0.0
17:47 15.8 12.0 78 1017.8 9.2 S 14.5 0.0 0.0
17:48 15.8 12.2 79 1017.8 15.2 SW 15.2 0.0 0.0
17:49 15.8 12.2 79 1017.8 13.6 SSW 15.2 0.0 0.0
17:50 15.7 12.1 79 1017.8 11.4 NNW 15.2 0.0 0.0
17:51 15.7 12.1 79 1017.7 11.4 NNW 15.2 0.0 0.0
17:52 15.7 12.1 79 1017.9 16.8 SW 16.8 0.0 0.0
17:53 15.7 12.1 79 1017.8 16.8 SW 16.8 0.0 0.0
17:54 15.7 12.1 79 1017.8 10.7 SW 16.8 0.0 0.0
17:55 15.7 12.1 79 1017.7 17.4 SW 17.4 0.0 0.0
17:56 15.7 12.1 79 1017.8 16.8 SSW 17.4 0.0 0.0
17:57 15.7 12.1 79 1017.6 12.1 S 17.4 0.0 0.0
17:58 15.7 12.1 79 1017.8 13.6 S 17.4 0.0 0.0
17:59 15.7 12.1 79 1017.7 13.6 S 17.4 0.0 0.0
18:00 15.8 12.4 80 1017.6 15.9 W 17.4 0.0 0.0
18:01 15.8 12.4 80 1017.6 15.9 W 17.4 0.0 0.0
18:02 16.0 12.6 80 1017.6 12.1 SW 17.4 0.0 0.0
18:03 16.0 12.6 80 1017.7 13.0 NNW 17.4 0.0 0.0
18:04 16.1 12.7 80 1017.6 19.7 SW 19.7 0.0 0.0
18:05 16.1 12.7 80 1017.7 17.4 S 19.7 0.0 0.0
18:06 16.1 12.7 80 1017.6 13.0 SW 19.7 0.0 0.0
18:07 16.1 12.7 80 1017.6 13.0 SW 19.7 0.0 0.0
18:08 16.1 12.7 80 1017.5 12.1 SW 19.7 0.0 0.0
18:09 16.1 12.7 80 1017.6 11.4 SW 19.7 0.0 0.0
18:10 16.1 12.7 80 1017.7 12.1 SSW 19.7 0.0 0.0
18:11 16.1 12.7 80 1017.6 14.5 SW 19.7 0.0 0.0
18:12 16.0 12.6 80 1017.5 14.5 S 19.7 0.0 0.0
18:13 16.0 12.4 79 1017.5 12.1 S 19.7 0.0 0.0
18:14 16.0 12.6 80 1017.7 14.5 NW 19.7 0.0 0.0
18:15 15.9 12.5 80 1017.6 15.2 SW 17.4 0.0 0.0
18:16 15.9 12.5 80 1017.6 16.8 SW 16.8 0.0 0.0
18:17 15.8 12.4 80 1017.6 15.9 WSW 17.4 0.0 0.0
18:18 15.8 12.2 79 1017.6 14.5 S 17.4 0.0 0.0
18:19 15.8 12.2 79 1017.6 15.2 S 17.4 0.0 0.0
18:20 15.7 12.3 80 1017.5 13.0 S 17.4 0.0 0.0
18:21 15.7 12.3 80 1017.5 15.2 SW 17.4 0.0 0.0
18:22 15.7 12.3 80 1017.5 9.8 SW 17.4 0.0 0.0
18:23 15.7 12.3 80 1017.6 12.1 SW 17.4 0.0 0.0
18:24 15.6 12.2 80 1017.5 15.2 NW 17.4 0.0 0.0
18:25 15.6 12.2 80 1017.4 13.0 SW 17.4 0.0 0.0
18:26 15.6 12.2 80 1017.5 12.1 S 17.4 0.0 0.0
18:27 15.6 12.2 80 1017.5 12.1 S 17.4 0.0 0.0
18:28 15.6 12.2 80 1017.5 13.6 SW 15.2 0.0 0.0
18:29 15.6 12.2 80 1017.4 12.1 S 15.2 0.0 0.0
18:30 15.6 12.2 80 1017.4 15.2 S 15.2 0.0 0.0
18:31 15.6 12.2 80 1017.6 14.5 SE 15.2 0.0 0.0
18:32 15.6 12.2 80 1017.4 15.2 S 15.2 0.0 0.0
18:33 15.5 12.1 80 1017.3 14.5 SW 15.2 0.0 0.0
18:34 15.5 11.9 79 1017.4 15.2 NW 15.2 0.0 0.0
18:36 15.5 11.9 79 1017.4 13.6 SW 20.6 0.0 0.0
18:37 15.5 11.9 79 1017.4 9.8 SE 20.6 0.0 0.0
18:38 15.5 11.9 79 1017.5 15.2 S 20.6 0.0 0.0
18:39 15.5 11.9 79 1017.5 15.2 S 20.6 0.0 0.0
18:40 15.5 11.9 79 1017.4 13.6 S 20.6 0.0 0.0
18:41 15.5 11.9 79 1017.2 16.8 WSW 20.6 0.0 0.0
18:42 15.5 11.9 79 1017.5 12.1 SW 20.6 0.0 0.0
18:43 15.5 11.9 79 1017.3 13.0 SW 20.6 0.0 0.0
18:44 15.6 12.0 79 1017.3 12.1 S 20.6 0.0 0.0
18:45 15.6 12.0 79 1017.2 14.5 S 16.8 0.0 0.0
18:46 15.6 12.0 79 1017.2 14.5 S 16.8 0.0 0.0
18:47 15.6 12.0 79 1017.2 13.6 SW 16.8 0.0 0.0
18:48 15.7 12.1 79 1017.2 11.4 S 16.8 0.0 0.0
18:49 15.7 12.1 79 1017.1 13.0 S 16.8 0.0 0.0
18:50 15.7 12.1 79 1017.1 9.8 S 16.8 0.0 0.0
18:51 15.7 12.1 79 1017.1 16.8 S 16.8 0.0 0.0
18:52 15.8 12.2 79 1017.2 15.9 S 16.8 0.0 0.0
18:53 15.8 12.2 79 1017.2 15.9 N 16.8 0.0 0.0
18:54 15.8 12.2 79 1017.2 15.2 S 16.8 0.0 0.0
18:55 15.8 12.2 79 1017.2 13.6 S 16.8 0.0 0.0
18:56 15.8 12.2 79 1017.1 13.6 S 16.8 0.0 0.0
18:57 15.8 12.2 79 1017.2 13.0 S 16.8 0.0 0.0
18:58 15.8 12.2 79 1017.1 13.6 SW 16.8 0.0 0.0
18:59 15.8 12.2 79 1017.2 11.4 S 16.8 0.0 0.0
19:00 15.8 12.2 79 1017.1 15.2 SW 16.8 0.0 0.0
19:01 15.8 12.2 79 1017.2 15.2 S 15.9 0.0 0.0
19:02 15.8 12.0 78 1017.1 12.1 W 15.9 0.0 0.0
19:03 15.8 12.0 78 1017.2 13.0 NW 15.2 0.0 0.0
19:04 15.8 12.0 78 1017.3 15.2 S 15.2 0.0 0.0
19:05 15.7 11.9 78 1017.2 15.2 SW 15.2 0.0 0.0
19:06 15.7 11.9 78 1017.1 13.0 S 15.2 0.0 0.0
19:07 15.7 11.9 78 1017.2 15.9 S 15.9 0.0 0.0
19:08 15.7 11.9 78 1017.2 13.6 SW 15.9 0.0 0.0
19:09 15.6 11.8 78 1017.1 14.5 S 15.9 0.0 0.0
19:10 15.6 11.8 78 1017.2 16.8 SW 16.8 0.0 0.0
19:11 15.6 11.8 78 1017.2 16.8 SW 16.8 0.0 0.0
19:12 15.6 11.8 78 1017.2 10.7 SE 16.8 0.0 0.0
19:13 15.6 11.8 78 1017.2 18.3 S 18.3 0.0 0.0
19:14 15.6 11.8 78 1017.0 14.5 SE 18.3 0.0 0.0
19:15 15.6 11.8 78 1017.2 13.6 S 18.3 0.0 0.0
19:16 15.5 11.7 78 1017.3 13.6 S 18.3 0.0 0.0
19:17 15.5 11.9 79 1017.1 12.1 S 18.3 0.0 0.0
19:18 15.5 11.9 79 1017.1 16.8 SE 18.3 0.0 0.0
19:19 15.5 11.9 79 1017.2 15.2 SW 18.3 0.0 0.0
19:20 15.4 11.8 79 1017.1 13.0 S 18.3 0.0 0.0
19:21 15.4 11.8 79 1017.1 16.8 SW 18.3 0.0 0.0
19:22 15.4 11.8 79 1016.9 16.8 SW 18.3 0.0 0.0
19:23 15.4 11.8 79 1017.0 13.0 S 16.8 0.0 0.0
19:24 15.4 12.0 80 1017.2 15.9 SW 16.8 0.0 0.0
19:25 15.4 12.0 80 1017.1 15.2 S 16.8 0.0 0.0
19:26 15.5 12.1 80 1017.0 15.2 SE 16.8 0.0 0.0
19:27 15.5 12.1 80 1017.0 12.1 S 16.8 0.0 0.0
19:28 15.5 12.1 80 1016.8 12.1 SW 16.8 0.0 0.0
19:29 15.5 12.1 80 1016.9 13.0 S 16.8 0.0 0.0
19:30 15.5 12.1 80 1016.9 13.0 S 16.8 0.0 0.0
19:31 15.5 12.1 80 1017.0 13.0 SW 16.8 0.0 0.0
19:32 15.5 12.1 80 1016.9 10.7 SSW 16.8 0.0 0.0
19:33 15.5 12.1 80 1017.2 18.3 S 18.3 0.0 0.0
19:34 15.5 12.1 80 1017.0 15.9 SW 18.3 0.0 0.0
19:35 15.5 12.1 80 1017.0 19.0 SW 19.0 0.0 0.0
19:36 15.5 12.1 80 1016.9 15.9 WSW 19.0 0.0 0.0
19:37 15.5 12.1 80 1016.9 14.5 S 19.0 0.0 0.0
19:38 15.4 12.0 80 1016.9 12.1 SW 19.0 0.0 0.0
19:39 15.4 12.0 80 1016.8 7.6 S 19.0 0.0 0.0
19:40 15.4 12.0 80 1016.9 12.1 SW 19.0 0.0 0.0
19:41 15.4 12.0 80 1016.8 17.4 WSW 19.0 0.0 0.0
19:42 15.3 11.9 80 1016.8 17.4 S 19.0 0.0 0.0
19:43 15.3 11.9 80 1016.8 13.0 SE 19.0 0.0 0.0
19:44 15.3 11.9 80 1016.8 9.2 S 19.0 0.0 0.0
19:45 15.3 11.9 80 1016.9 12.1 S 17.4 0.0 0.0
19:46 15.2 12.0 81 1016.8 13.6 SW 17.4 0.0 0.0
19:47 15.2 12.0 81 1016.9 10.7 S 17.4 0.0 0.0
19:48 15.2 12.0 81 1016.8 11.4 SSW 17.4 0.0 0.0
19:49 15.2 12.0 81 1016.8 14.5 SW 17.4 0.0 0.0
19:50 15.2 12.0 81 1016.8 12.1 S 17.4 0.0 0.0
19:51 15.2 12.0 81 1016.7 11.4 SE 17.4 0.0 0.0
19:52 15.2 12.0 81 1016.9 15.9 SW 17.4 0.0 0.0
19:53 15.2 12.0 81 1016.8 17.4 SW 17.4 0.0 0.0
19:54 15.1 11.9 81 1016.9 15.2 SE 17.4 0.0 0.0
19:55 15.1 12.1 82 1016.8 13.0 WSW 17.4 0.0 0.0
19:56 15.1 12.1 82 1016.8 14.5 WSW 17.4 0.0 0.0
19:57 15.1 12.1 82 1016.8 12.1 S 17.4 0.0 0.0
19:58 15.1 12.1 82 1016.8 12.1 S 17.4 0.0 0.0
19:59 15.0 12.0 82 1016.9 13.0 S 17.4 0.0 0.0
20:00 15.0 12.0 82 1016.8 15.2 S 17.4 0.0 0.0
20:01 15.0 12.0 82 1016.7 15.2 SW 17.4 0.0 0.0
20:02 14.9 11.9 82 1016.8 11.4 S 17.4 0.0 0.0
20:03 14.9 12.0 83 1016.7 14.5 SSW 15.2 0.0 0.0
20:04 14.9 11.9 82 1016.8 11.4 S 15.2 0.0 0.0
20:05 14.9 12.0 83 1016.6 11.4 SW 15.2 0.0 0.0
20:06 14.9 12.0 83 1016.8 13.0 SE 15.2 0.0 0.0
20:07 14.8 11.9 83 1016.8 13.6 S 15.2 0.0 0.0
20:08 14.8 11.9 83 1016.7 14.5 SW 15.2 0.0 0.0
20:09 14.8 11.9 83 1016.7 11.4 S 15.2 0.0 0.0
20:10 14.8 11.9 83 1016.6 14.5 S 15.2 0.0 0.0
20:11 14.8 11.9 83 1016.6 15.9 SW 15.9 0.0 0.0
20:12 14.8 11.9 83 1016.8 11.4 S 15.9 0.0 0.0
20:13 14.8 12.1 84 1016.7 15.9 S 15.9 0.0 0.0
20:14 14.8 12.1 84 1016.8 16.8 SW 16.8 0.0 0.0
20:15 14.8 12.1 84 1016.8 15.2 SW 16.8 0.0 0.0
20:16 14.7 12.0 84 1016.7 13.0 S 16.8 0.0 0.0
20:17 14.7 12.0 84 1016.8 14.5 SE 16.8 0.0 0.0
20:18 14.7 12.0 84 1016.8 18.3 S 18.3 0.0 0.0
20:19 14.7 12.0 84 1016.7 16.8 SW 18.3 0.0 0.0
20:20 14.7 12.0 84 1016.8 14.5 S 18.3 0.0 0.0
20:22 14.7 12.0 84 1016.8 14.5 S 18.3 0.0 0.0
20:23 14.7 12.0 84 1016.6 14.5 SW 18.3 0.0 0.0
20:24 14.7 12.0 84 1016.6 18.3 SSW 18.3 0.0 0.0
20:25 14.7 12.0 84 1016.8 13.6 S 18.3 0.0 0.0
20:26 14.7 12.2 85 1016.6 15.2 SW 18.3 0.0 0.0
20:27 14.7 12.0 84 1016.7 11.4 S 18.3 0.0 0.0
20:28 14.7 12.0 84 1016.7 13.6 SW 18.3 0.0 0.0
20:29 14.7 12.0 84 1016.8 13.6 SSW 18.3 0.0 0.0
20:30 14.7 12.2 85 1016.6 11.4 SW 18.3 0.0 0.0
20:31 14.7 12.2 85 1016.6 12.1 SW 18.3 0.0 0.0
20:32 14.7 12.2 85 1016.6 15.2 SW 18.3 0.0 0.0
20:33 14.6 12.1 85 1016.5 13.6 S 18.3 0.0 0.0
20:34 14.6 12.1 85 1016.7 10.7 S 18.3 0.0 0.0
20:46 14.6 12.1 85 1016.5 15.9 S 19.7 0.0 0.0
20:47 14.6 12.1 85 1016.5 15.9 S 19.7 0.0 0.0
20:48 14.5 12.0 85 1016.6 12.1 SE 19.7 0.0 0.0
20:49 14.6 12.1 85 1016.6 8.3 SSW 19.7 0.0 0.0
20:50 14.5 12.0 85 1016.6 10.7 SW 19.7 0.0 0.0
20:51 14.5 12.0 85 1016.4 13.6 WSW 19.7 0.0 0.0
20:52 14.5 12.0 85 1016.5 9.8 S 19.7 0.0 0.0
20:53 14.5 12.0 85 1016.6 14.5 SW 16.8 0.0 0.0
20:54 14.5 12.0 85 1016.5 9.8 SW 15.9 0.0 0.0
20:55 14.5 11.8 84 1016.6 12.1 S 16.8 0.0 0.0
20:56 14.5 12.0 85 1016.5 14.5 S 16.8 0.0 0.0
20:57 14.5 12.0 85 1016.3 12.1 S 16.8 0.0 0.0
20:59 14.5 11.8 84 1016.3 12.1 S 16.8 0.0 0.0
21:00 14.5 12.0 85 1016.3 13.0 SW 16.8 0.0 0.0
21:02 14.5 12.0 85 1016.3 19.7 S 19.7 0.0 0.0
21:03 14.4 11.9 85 1016.4 9.8 WSW 19.7 0.0 0.0
21:04 14.4 11.9 85 1016.3 15.9 SW 19.7 0.0 0.0
21:05 14.4 11.9 85 1016.2 17.4 S 19.7 0.0 0.0
21:06 14.4 11.9 85 1016.5 13.6 S 19.7 0.0 0.0
21:07 14.4 11.9 85 1016.4 13.6 S 19.7 0.0 0.0
21:08 14.4 11.9 85 1016.3 14.5 SW 19.7 0.0 0.0
21:09 14.4 11.9 85 1016.4 11.4 SE 19.7 0.0 0.0
21:10 14.4 11.9 85 1016.4 13.0 S 19.7 0.0 0.0
21:11 14.3 11.8 85 1016.3 9.8 SSW 19.7 0.0 0.0
21:13 14.3 11.8 85 1016.3 13.0 S 17.4 0.0 0.0
21:14 14.3 11.8 85 1016.3 10.7 SW 17.4 0.0 0.0
21:15 14.3 11.8 85 1016.3 13.6 S 14.5 0.0 0.0
21:16 14.3 11.8 85 1016.3 12.1 S 14.5 0.0 0.0
21:17 14.3 11.8 85 1016.3 13.6 S 14.5 0.0 0.0
21:18 14.3 11.8 85 1016.2 14.5 SW 14.5 0.0 0.0
21:19 14.3 11.8 85 1016.1 13.6 S 14.5 0.0 0.0
21:20 14.3 11.8 85 1016.3 14.5 SW 14.5 0.0 0.0
21:21 14.3 11.8 85 1016.2 13.0 S 14.5 0.0 0.0
21:22 14.3 11.8 85 1016.3 17.4 S 17.4 0.0 0.0
21:23 14.3 11.8 85 1016.3 17.4 S 17.4 0.0 0.0
21:24 14.3 11.8 85 1016.2 15.2 SE 17.4 0.0 0.0
21:25 14.3 11.8 85 1016.2 11.4 SW 17.4 0.0 0.0
21:26 14.3 11.8 85 1016.2 14.5 S 17.4 0.0 0.0
21:27 14.2 11.7 85 1016.2 12.1 SW 17.4 0.0 0.0
21:28 14.2 11.7 85 1016.1 13.0 SW 17.4 0.0 0.0
21:29 14.3 11.8 85 1016.2 13.0 S 17.4 0.0 0.0
21:30 14.2 11.7 85 1016.1 9.8 SE 17.4 0.0 0.0
21:31 14.2 11.9 86 1016.3 12.1 SW 17.4 0.0 0.0
21:32 14.2 11.9 86 1016.2 14.5 S 17.4 0.0 0.0
21:33 14.2 11.9 86 1016.0 13.0 SW 16.8 0.0 0.0
21:34 14.2 11.9 86 1016.2 12.1 SSW 16.8 0.0 0.0
21:35 14.2 11.9 86 1016.2 13.6 SW 16.8 0.0 0.0
21:36 14.2 11.9 86 1016.0 13.6 SSW 16.8 0.0 0.0
21:37 14.2 11.9 86 1016.0 15.9 S 16.8 0.0 0.0
21:38 14.2 11.9 86 1016.1 10.7 SW 16.8 0.0 0.0
21:39 14.2 11.9 86 1016.2 12.1 SSW 16.8 0.0 0.0
21:40 14.2 11.9 86 1016.0 12.1 S 16.8 0.0 0.0
21:41 14.2 11.9 86 1016.2 14.5 S 16.8 0.0 0.0
21:42 14.2 11.9 86 1015.9 11.4 SW 16.8 0.0 0.0
21:43 14.2 11.9 86 1016.0 11.4 SW 16.8 0.0 0.0
21:44 14.2 11.9 86 1016.1 16.8 S 16.8 0.0 0.0
21:45 14.2 11.9 86 1016.0 13.0 SE 16.8 0.0 0.0
21:46 14.2 11.9 86 1015.8 13.0 SW 16.8 0.0 0.0
21:47 14.2 11.9 86 1016.0 15.2 S 16.8 0.0 0.0
21:48 14.2 11.9 86 1016.0 15.2 S 16.8 0.0 0.0
21:49 14.2 11.9 86 1015.8 11.4 S 16.8 0.0 0.0
21:50 14.2 11.9 86 1015.9 12.1 S 16.8 0.0 0.0
21:51 14.2 12.1 87 1015.9 19.0 S 19.0 0.0 0.0
21:52 14.2 12.1 87 1015.9 18.3 WSW 19.0 0.0 0.0
21:53 14.2 12.1 87 1015.8 13.0 WSW 19.0 0.0 0.0
21:54 14.2 12.1 87 1015.9 10.7 SW 19.0 0.0 0.0
21:55 14.1 12.0 87 1015.9 7.6 S 19.0 0.0 0.0
21:56 14.2 12.1 87 1016.2 13.6 SE 19.0 0.0 0.0
21:57 14.1 12.0 87 1016.2 10.7 SSW 19.0 0.0 0.0
21:58 14.1 11.8 86 1016.1 12.1 SSE 19.0 0.0 0.0
21:59 14.1 12.0 87 1015.8 11.4 SSW 19.0 0.0 0.0
22:00 14.1 12.0 87 1016.0 16.8 SW 19.0 0.0 0.0
22:01 14.1 12.0 87 1016.0 16.8 SW 19.0 0.0 0.0
22:02 14.1 12.0 87 1016.1 10.7 S 18.3 0.0 0.0
22:03 14.1 12.0 87 1016.0 12.1 SW 16.8 0.0 0.0
22:04 14.2 12.1 87 1015.9 13.6 WSW 16.8 0.0 0.0
22:05 14.2 12.1 87 1015.9 15.2 SSW 16.8 0.0 0.0
22:06 14.2 12.1 87 1016.0 15.9 S 16.8 0.0 0.0
22:07 14.1 12.0 87 1015.8 14.5 S 16.8 0.0 0.0
22:08 14.2 12.1 87 1016.0 12.1 SW 16.8 0.0 0.0
22:10 14.1 12.0 87 1015.8 15.2 S 16.8 0.0 0.0
22:11 14.2 12.1 87 1015.9 11.4 SSE 15.9 0.0 0.0
22:12 14.2 12.1 87 1015.7 17.4 WSW 17.4 0.0 0.0
22:13 14.2 12.1 87 1015.8 18.3 SW 18.3 0.0 0.0
22:14 14.2 12.1 87 1016.0 17.4 S 18.3 0.0 0.0
22:15 14.2 12.1 87 1015.8 13.6 SE 18.3 0.0 0.0
22:16 14.2 12.1 87 1015.9 14.5 S 18.3 0.0 0.0
22:17 14.2 12.1 87 1015.9 11.4 S 18.3 0.0 0.0
22:18 14.2 12.1 87 1015.9 12.1 S 18.3 0.0 0.0
22:19 14.2 12.1 87 1015.7 15.2 SE 18.3 0.0 0.0
22:20 14.2 12.1 87 1015.7 12.1 S 18.3 0.0 0.0
22:21 14.2 12.1 87 1015.8 15.2 S 18.3 0.0 0.0
22:22 14.2 12.1 87 1015.8 15.9 SSW 18.3 0.0 0.0
22:23 14.2 12.1 87 1015.8 14.5 SW 18.3 0.0 0.0
22:24 14.2 12.1 87 1015.9 14.5 S 17.4 0.0 0.0
22:25 14.2 12.1 87 1015.8 14.5 S 15.9 0.0 0.0
22:26 14.2 12.1 87 1015.9 15.2 S 15.9 0.0 0.0
22:27 14.2 12.1 87 1015.8 13.6 S 15.9 0.0 0.0
22:28 14.2 12.1 87 1015.8 15.9 S 15.9 0.0 0.0
22:29 14.2 12.1 87 1015.8 14.5 S 15.9 0.0 0.0
22:30 14.2 12.1 87 1015.8 18.3 SW 18.3 0.0 0.0
22:32 14.2 12.1 87 1015.8 9.8 W 18.3 0.0 0.0
22:33 14.2 12.1 87 1015.6 12.1 SSE 18.3 0.0 0.0
22:34 14.2 12.1 87 1015.8 14.5 SE 18.3 0.0 0.0
22:35 14.2 12.1 87 1015.8 9.2 SW 18.3 0.0 0.0
22:36 14.2 12.2 88 1015.7 13.0 SW 18.3 0.0 0.0
22:37 14.2 12.1 87 1015.8 13.6 S 18.3 0.0 0.0
22:38 14.2 12.2 88 1015.6 12.1 SW 18.3 0.0 0.0
22:39 14.2 12.2 88 1015.6 12.1 S 18.3 0.0 0.0
22:40 14.2 12.2 88 1015.7 13.0 S 15.9 0.0 0.0
22:41 14.2 12.2 88 1015.6 13.6 SW 15.9 0.0 0.0
22:42 14.2 12.2 88 1015.6 11.4 S 15.9 0.0 0.0
22:43 14.2 12.2 88 1015.6 15.2 SW 15.9 0.0 0.0
22:44 14.2 12.2 88 1015.5 11.4 S 15.9 0.0 0.0
22:45 14.2 12.2 88 1015.6 13.0 S 15.9 0.0 0.0
22:46 14.2 12.2 88 1015.6 13.0 S 15.9 0.0 0.0
22:47 14.2 12.2 88 1015.6 16.8 SW 16.8 0.0 0.0
22:48 14.2 12.2 88 1015.5 13.6 S 16.8 0.0 0.0
22:49 14.2 12.2 88 1015.4 11.4 S 16.8 0.0 0.0
22:50 14.2 12.2 88 1015.5 15.2 S 16.8 0.0 0.0
22:51 14.2 12.2 88 1015.4 14.5 S 16.8 0.0 0.0
22:52 14.2 12.2 88 1015.5 15.2 S 16.8 0.0 0.0
22:53 14.2 12.2 88 1015.3 15.2 S 16.8 0.0 0.0
22:54 14.2 12.2 88 1015.4 12.1 SW 16.8 0.0 0.0
22:55 14.2 12.2 88 1015.4 14.5 S 16.8 0.0 0.0
22:56 14.2 12.2 88 1015.4 14.5 SE 16.8 0.0 0.0
22:57 14.2 12.2 88 1015.2 15.2 S 16.8 0.0 0.0
22:59 14.2 12.2 88 1015.4 13.6 SE 15.2 0.0 0.0
23:00 14.2 12.2 88 1015.3 10.7 SE 15.2 0.0 0.0
23:02 14.2 12.2 88 1015.2 20.6 SW 20.6 0.0 0.0
23:03 14.2 12.2 88 1015.1 15.9 S 20.6 0.0 0.0
23:04 14.2 12.2 88 1015.3 11.4 S 20.6 0.0 0.0
23:05 14.2 12.4 89 1015.2 12.1 S 20.6 0.0 0.0
23:06 14.2 12.4 89 1015.4 14.5 SW 20.6 0.0 0.0
23:08 14.2 12.4 89 1015.4 13.6 SW 20.6 0.0 0.0
23:09 14.2 12.4 89 1015.6 16.8 S 20.6 0.0 0.0
23:10 14.3 12.5 89 1015.5 19.7 S 20.6 0.0 0.0
23:11 14.3 12.5 89 1015.3 12.1 S 20.6 0.0 0.0
23:12 14.3 12.5 89 1015.5 15.9 S 19.7 0.0 0.0
23:13 14.3 12.5 89 1015.3 13.6 S 19.7 0.0 0.0
23:14 14.3 12.5 89 1015.3 18.3 S 19.7 0.0 0.0
23:15 14.3 12.5 89 1015.1 16.8 S 19.7 0.0 0.0
23:16 14.3 12.5 89 1015.4 14.5 SW 19.7 0.0 0.0
23:17 14.3 12.5 89 1015.2 13.0 SW 19.7 0.0 0.0
23:18 14.3 12.5 89 1015.3 13.0 SSW 19.7 0.0 0.0
23:19 14.3 12.5 89 1015.3 16.8 SW 19.7 0.0 0.0
23:20 14.3 12.5 89 1015.3 17.4 S 19.7 0.0 0.0
23:21 14.3 12.5 89 1015.5 13.6 SE 18.3 0.0 0.0
23:22 14.3 12.5 89 1015.4 13.6 S 18.3 0.0 0.0
23:23 14.3 12.5 89 1015.3 16.8 SW 18.3 0.0 0.0
23:24 14.3 12.5 89 1015.4 19.0 S 19.0 0.0 0.0
23:25 14.3 12.5 89 1015.2 18.3 S 19.0 0.0 0.0
23:26 14.3 12.5 89 1015.3 14.5 S 19.0 0.0 0.0
23:27 14.3 12.7 90 1015.2 14.5 WSW 19.0 0.0 0.0
23:28 14.3 12.7 90 1015.2 14.5 S 19.0 0.0 0.0
23:29 14.3 12.7 90 1015.2 13.0 S 19.0 0.0 0.0
23:30 14.3 12.7 90 1015.1 13.0 S 19.0 0.0 0.0
23:31 14.3 12.7 90 1015.1 13.0 SW 19.0 0.0 0.0
23:32 14.3 12.7 90 1014.9 11.4 S 19.0 0.0 0.0
23:33 14.3 12.7 90 1015.1 11.4 SW 19.0 0.0 0.0
23:34 14.3 12.7 90 1015.0 14.5 S 19.0 0.0 0.0
23:35 14.3 12.7 90 1014.9 12.1 S 18.3 0.0 0.0
23:36 14.3 12.7 90 1014.9 15.9 S 15.9 0.0 0.0
23:37 14.3 12.7 90 1015.1 13.6 SE 15.9 0.0 0.0
23:38 14.3 12.7 90 1015.0 16.8 S 16.8 0.0 0.0
23:40 14.3 12.7 90 1015.0 15.9 SW 17.4 0.0 0.0
23:41 14.3 12.7 90 1015.0 15.2 S 17.4 0.0 0.0
23:42 14.3 12.7 90 1014.9 16.8 S 17.4 0.0 0.0
23:43 14.3 12.7 90 1014.9 14.5 SW 17.4 0.0 0.0
23:44 14.3 12.7 90 1014.8 16.8 S 17.4 0.0 0.0
23:45 14.3 12.7 90 1014.8 11.4 S 17.4 0.0 0.0
23:46 14.3 12.7 90 1014.8 14.5 SW 17.4 0.0 0.0
23:47 14.3 12.7 90 1014.8 14.5 SW 17.4 0.0 0.0
23:48 14.3 12.7 90 1014.8 16.8 SW 17.4 0.0 0.0
23:49 14.3 12.7 90 1014.8 13.0 SW 17.4 0.0 0.0
23:50 14.3 12.7 90 1014.8 16.8 S 17.4 0.0 0.0
23:51 14.3 12.7 90 1014.8 16.8 S 17.4 0.0 0.0
23:52 14.3 12.9 91 1014.8 14.5 SW 17.4 0.0 0.0
23:53 14.3 12.9 91 1014.6 13.0 SW 17.4 0.0 0.0
23:54 14.3 12.7 90 1014.7 10.7 S 17.4 0.0 0.0
23:55 14.3 12.7 90 1014.7 9.8 SE 17.4 0.0 0.0
23:56 14.3 12.9 91 1014.8 15.2 SW 16.8 0.0 0.0
23:57 14.3 12.7 90 1014.8 16.8 S 16.8 0.0 0.0
23:58 14.3 12.9 91 1014.6 14.5 S 16.8 0.0 0.0
23:59 14.3 12.9 91 1014.6 15.2 S 16.8 0.0 0.0

UK - WEATHER STATION TOPSITES - UK World Weather Websites

This is a private weather station, never base important decisions or events on data from this weather station. Although every effort has been made to make the data as accurate as possible it does not meet MetOffice standards. It is proved as a guide of local weather conditions. We accept no liability for any loss which may arise from use of the data.

Copyright © Carnkie Weather 2009 - 2018.